GFSMA_850_dewp_018.txt.gz
Dewpoint
2 -0 -0 -0 0 2 2 -0 -1 0 1 0 0 0 -0 2 3 4 4 4 4 4 2 0 -3 -2 1 1 1 -0 -1 -2 -2 -5 -8 -9 -8 -0 5 7 8 8 9
4 3 2 3 3 2 -0 -0 1 1 0 0 0 -1 -1 1 1 0 1 1 1 1 -0 -2 -2 -4 -5 -3 0 0 0 0 0 -1 -5 -8 -8 -8 -6 3 6 8 9
5 5 5 5 4 3 3 2 1 1 -0 -0 -1 -3 -5 -6 -8 -8 -8 -6 -3 -2 -3 -2 -1 -2 -3 -3 -3 -2 1 0 1 1 -0 -2 -5 -8 -8 -7 2 6 7
6 6 6 4 4 2 1 -2 -2 -1 -1 -3 -3 -4 -5 -7 -7 -8 -9 -11 -11 -11 -10 -5 -4 -4 -4 1 2 -0 -0 2 1 2 0 0 -1 -5 -8 -8 -7 4 7
5 4 2 2 3 -1 -2 -2 -2 -3 -3 -3 -4 -4 -4 -5 -5 -8 -13 -7 -3 -3 -2 -2 -3 -6 -7 -7 -6 -3 -0 1 1 1 2 1 -0 -1 -4 -6 -7 -7 5
4 3 2 0 -2 -1 -1 -2 -2 -3 -3 -4 -4 -5 -5 -5 -8 -10 -5 -6 -8 -7 -6 -6 -5 -2 -1 -1 -2 -1 -1 -1 1 1 1 2 3 0 -0 -3 -4 -6 -8
1 0 -0 -2 -1 -0 -1 -2 -3 -3 -3 -4 -7 -11 -18 -11 -8 -14 -13 -4 -5 -8 -8 -8 -10 -9 -8 -7 -5 -5 -2 -1 1 1 0 1 4 5 3 -1 -2 -3 -5
0 0 -0 -0 -0 -1 -1 -1 -2 -5 -9 -11 -13 -14 -8 -10 -9 -4 -11 -9 -4 -6 -6 -7 -10 -11 -12 -14 -13 -15 -13 -8 -4 -0 2 2 2 4 4 3 0 -2 -2
1 0 0 -0 -1 0 0 -6 -8 -10 -10 -14 -13 -6 -3 -3 -3 -6 -6 -10 -4 -5 -5 -5 -6 -8 -9 -10 -10 -11 -12 -13 -12 -8 -4 -0 2 3 3 4 3 -1 -2
0 -0 -1 -2 -4 -5 -7 -8 -9 -9 -15 -14 -13 -10 -6 -3 -2 -3 -4 -4 -5 -5 -6 -7 -8 -8 -6 -7 -9 -10 -11 -11 -12 -12 -8 -4 -3 2 2 4 2 2 -1
-6 -6 -6 -6 -5 -4 -3 -4 -8 -16 -15 -14 -12 -11 -10 -7 -5 -3 -3 -3 -5 -5 -5 -7 -8 -7 -6 -6 -6 -8 -9 -9 -10 -10 -11 -9 -4 -1 2 2 2 3 2
-6 -5 -3 -3 -3 -4 -9 -14 -15 -16 -17 -16 -15 -13 -10 -7 -7 -6 -5 -5 -5 -5 -8 -8 -7 -4 -5 -6 -8 -8 -7 -5 -5 -5 -5 -5 -7 -3 0 3 3 4 2
-4 -4 -3 -3 -2 -4 -9 -11 -13 -16 -16 -14 -15 -14 -13 -11 -11 -11 -9 -8 -9 -11 -11 -11 -11 -9 -5 -4 -8 -7 -7 -7 -6 -5 -5 -5 -4 -1 1 3 4 3 3
-3 -2 -2 -2 -2 -4 -6 -5 -11 -14 -15 -13 -12 -12 -12 -12 -12 -10 -8 -10 -10 -9 -11 -11 -13 -14 -12 -9 -6 -9 -9 -9 -9 -9 -8 -8 -6 -3 -1 1 1 1 2
-4 -2 -2 -2 -5 -3 -5 -9 -12 -13 -13 -12 -13 -13 -12 -12 -11 -9 -9 -10 -10 -10 -10 -12 -12 -14 -16 -16 -14 -9 -8 -9 -10 -10 -10 -11 -12 -6 -2 -0 1 1 1
-3 -2 -4 -5 -4 -4 -6 -9 -12 -13 -13 -12 -12 -11 -10 -10 -9 -10 -10 -9 -10 -11 -11 -11 -13 -14 -14 -14 -14 -11 -13 -9 -9 -10 -10 -10 -11 -10 -5 -2 -1 0 1
-14 -6 -6 -4 -3 -4 -7 -11 -12 -11 -12 -11 -11 -10 -10 -10 -9 -9 -9 -10 -12 -14 -15 -16 -16 -16 -14 -14 -14 -9 -10 -11 -13 -12 -10 -10 -11 -10 -5 -2 -1 -2 0
-14 -7 -4 -4 -4 -4 -8 -12 -9 -11 -11 -10 -10 -9 -9 -9 -9 -13 -13 -12 -13 -14 -15 -14 -15 -16 -14 -14 -8 -8 -9 -9 -10 -11 -12 -11 -11 -11 -9 -3 -1 -3 -5
-12 -5 -4 -4 -5 -9 -11 -9 -9 -10 -10 -9 -9 -9 -9 -12 -12 -12 -11 -12 -13 -14 -12 -11 -11 -12 -12 -10 -12 -9 -10 -11 -11 -11 -13 -14 -12 -11 -12 -5 -3 -3 -2
-9 -6 -4 -4 -4 -10 -9 -8 -9 -9 -9 -9 -10 -12 -13 -13 -12 -11 -12 -12 -12 -12 -12 -12 -12 -10 -10 -11 -8 -8 -9 -10 -12 -13 -14 -15 -12 -9 -11 -8 -4 -3 -3
-7 -4 -4 -4 -7 -8 -9 -9 -9 -10 -11 -12 -14 -16 -15 -14 -11 -12 -12 -12 -12 -12 -12 -12 -12 -12 -12 -12 -10 -9 -8 -10 -12 -13 -15 -16 -7 -7 -5 -7 -5 -4 -3
-7 -7 -5 -5 -6 -8 -9 -9 -10 -11 -13 -17 -18 -17 -15 -16 -15 -13 -13 -12 -12 -12 -12 -12 -13 -13 -14 -13 -11 -9 -9 -9 -10 -13 -14 -15 -12 -7 -6 -5 -6 -5 -4
-6 -7 -7 -8 -8 -9 -8 -10 -11 -14 -18 -18 -16 -15 -15 -14 -14 -13 -13 -13 -13 -13 -12 -11 -12 -12 -11 -13 -13 -11 -10 -9 -10 -12 -12 -14 -15 -12 -7 -7 -6 -5 -6
-7 -8 -8 -8 -8 -8 -10 -11 -14 -18 -19 -17 -16 -14 -14 -14 -14 -13 -12 -12 -13 -13 -12 -12 -12 -13 -13 -11 -11 -12 -12 -11 -11 -12 -12 -13 -15 -16 -14 -11 -6 -7 -6
-7 -7 -7 -7 -8 -10 -11 -13 -17 -19 -17 -16 -15 -14 -14 -14 -14 -12 -12 -12 -12 -12 -12 -12 -12 -12 -13 -14 -11 -11 -12 -12 -11 -10 -10 -10 -11 -12 -13 -15 -13 -8 -8
-8 -8 -7 -8 -9 -10 -12 -15 -18 -18 -17 -16 -15 -15 -14 -14 -13 -13 -13 -13 -13 -13 -13 -13 -12 -12 -12 -14 -14 -11 -12 -10 -10 -10 -11 -10 -11 -12 -12 -13 -15 -15 -14

GFSMA_850_dewp_021.txt.gz
Dewpoint
4 2 1 1 1 2 1 -0 -1 0 1 1 -1 -2 -3 -3 -4 -3 -2 -0 1 1 2 2 1 1 -2 -5 -1 -0 -4 -2 -1 -1 -1 -3 -7 -9 -7 3 6 8 8
5 4 3 3 4 4 3 2 2 1 -1 -2 -2 -3 -3 -4 -6 -7 -8 -8 -8 -7 -6 -3 -2 -1 1 -1 -3 -2 -0 -2 -1 0 0 -1 -3 -7 -8 -8 -4 4 7
5 5 5 5 5 4 3 1 -1 -2 -2 -3 -3 -3 -3 -4 -4 -5 -6 -5 -6 -8 -10 -11 -10 -6 -2 -1 -2 -2 1 1 -1 1 0 0 -0 -1 -4 -8 -8 -6 4
6 6 5 4 2 2 1 -0 -1 -1 -2 -3 -2 -2 -3 -3 -3 -4 -5 -6 -6 -8 -8 -9 -8 -8 -9 -8 -7 -7 -3 1 1 0 2 1 0 0 -1 -6 -8 -8 -7
3 3 2 2 2 -0 -1 -1 -1 -2 -3 -3 -2 -2 -2 -2 -2 -3 -4 -6 -6 -7 -7 -8 -8 -7 -6 -6 -5 -4 -4 -6 -5 -2 1 1 1 0 1 -0 -3 -6 -8
2 2 2 1 -0 -1 -1 -1 -1 -1 -1 -3 -7 -9 -11 -15 -18 -12 -7 -8 -13 -11 -7 -8 -10 -11 -12 -12 -9 -6 -4 -3 -2 -2 -1 0 2 1 1 2 0 -2 -4
0 0 0 -0 -1 -1 -1 -1 -0 -1 -6 -11 -12 -7 -7 -15 -5 -7 -15 -9 -6 -11 -11 -10 -11 -12 -13 -16 -19 -19 -16 -11 -9 -6 -2 -1 1 2 2 2 4 1 -2
1 0 -0 -0 -0 -1 -3 -5 -8 -10 -10 -12 -15 -7 -8 -8 -3 -4 -2 -6 -3 -9 -6 -6 -7 -7 -8 -9 -11 -13 -15 -16 -15 -15 -14 -7 -2 1 2 3 3 4 2
1 0 -2 -5 -6 -7 -6 -5 -4 -5 -10 -14 -18 -6 -6 -7 -5 -6 -5 -5 -3 -3 -3 -3 -3 -6 -8 -9 -9 -10 -11 -11 -12 -13 -14 -15 -12 -4 -1 2 4 4 3
-2 -6 -9 -12 -8 -4 -4 -3 -3 -9 -16 -15 -16 -8 -7 -5 -6 -7 -7 -5 -5 -5 -4 -4 -6 -8 -7 -7 -6 -8 -8 -9 -9 -10 -10 -11 -12 -13 -8 -4 1 3 3
-9 -9 -8 -10 -10 -7 -3 -3 -6 -14 -17 -18 -11 -8 -7 -6 -6 -5 -7 -8 -7 -7 -6 -6 -6 -6 -6 -4 -4 -6 -7 -8 -7 -7 -6 -6 -7 -7 -10 -6 -4 1 3
-9 -9 -5 -3 -4 -4 -4 -4 -8 -9 -11 -16 -12 -9 -9 -8 -8 -8 -8 -8 -9 -9 -9 -8 -6 -8 -8 -7 -6 -5 -8 -8 -7 -6 -6 -5 -6 -6 -3 -7 -6 -1 3
-8 -11 -10 -3 -1 -3 -2 -4 -5 -8 -13 -14 -14 -10 -11 -9 -8 -8 -8 -9 -8 -10 -9 -8 -8 -8 -9 -9 -7 -11 -7 -9 -7 -7 -7 -7 -8 -8 -7 -4 -5 0 3
-15 -12 -9 -3 -2 -4 -5 -3 -7 -11 -12 -13 -13 -13 -12 -9 -12 -10 -7 -7 -8 -9 -10 -10 -10 -9 -9 -9 -9 -16 -10 -8 -9 -9 -9 -9 -10 -11 -11 -5 -4 -1 2
-17 -17 -9 -2 -3 -5 -4 -4 -7 -9 -12 -13 -13 -12 -12 -12 -11 -10 -9 -9 -7 -7 -9 -11 -11 -11 -10 -10 -9 -8 -8 -8 -11 -8 -8 -10 -10 -11 -13 -8 -4 -3 0
-16 -17 -14 -4 -4 -4 -4 -4 -6 -9 -12 -10 -12 -11 -11 -10 -9 -9 -10 -8 -8 -8 -9 -12 -13 -12 -12 -12 -10 -9 -9 -10 -11 -11 -12 -11 -10 -10 -11 -12 -6 -3 -3
-13 -14 -12 -6 -4 -4 -4 -4 -6 -11 -10 -10 -11 -10 -10 -9 -9 -8 -8 -9 -10 -11 -11 -12 -12 -12 -12 -11 -10 -10 -10 -9 -8 -9 -10 -12 -12 -12 -11 -12 -9 -4 -2
-11 -13 -11 -6 -6 -5 -4 -6 -10 -9 -9 -9 -10 -10 -9 -8 -9 -9 -9 -10 -10 -11 -11 -12 -13 -12 -11 -10 -10 -9 -9 -9 -9 -9 -10 -10 -12 -13 -13 -12 -12 -6 -2
-11 -11 -8 -6 -3 -4 -4 -10 -9 -8 -9 -9 -9 -10 -11 -10 -9 -10 -10 -10 -11 -11 -11 -11 -12 -11 -11 -11 -9 -9 -9 -9 -9 -9 -10 -11 -12 -14 -14 -13 -14 -8 -3
-10 -9 -7 -5 -5 -5 -6 -8 -8 -9 -9 -10 -11 -12 -15 -16 -12 -11 -11 -11 -11 -11 -11 -11 -11 -12 -11 -11 -10 -9 -10 -10 -10 -10 -10 -11 -13 -15 -13 -11 -12 -6 -3
-8 -8 -7 -7 -6 -4 -5 -6 -9 -9 -10 -11 -14 -18 -19 -17 -16 -14 -12 -11 -12 -11 -11 -11 -12 -12 -12 -12 -11 -11 -10 -9 -9 -9 -10 -10 -10 -8 -11 -8 -5 -5 -4
-8 -6 -6 -7 -6 -7 -8 -9 -9 -10 -11 -15 -19 -18 -17 -16 -12 -12 -14 -13 -12 -12 -11 -11 -12 -10 -11 -11 -11 -11 -10 -10 -10 -9 -9 -10 -10 -9 -7 -7 -5 -6 -4
-8 -7 -6 -7 -7 -8 -8 -9 -10 -12 -15 -19 -18 -16 -13 -12 -13 -13 -12 -12 -12 -12 -12 -12 -11 -11 -12 -12 -11 -10 -10 -10 -9 -9 -9 -10 -9 -9 -9 -7 -6 -5 -5
-9 -7 -8 -7 -7 -7 -9 -9 -12 -15 -18 -19 -17 -14 -12 -13 -13 -13 -12 -12 -12 -12 -11 -11 -11 -11 -11 -11 -11 -11 -11 -10 -10 -9 -9 -9 -10 -9 -10 -15 -8 -6 -6
-8 -8 -8 -8 -7 -9 -9 -11 -14 -16 -18 -18 -16 -13 -13 -13 -13 -13 -13 -12 -12 -12 -12 -12 -12 -12 -12 -12 -12 -11 -11 -10 -10 -12 -11 -10 -10 -9 -9 -11 -14 -9 -6
-8 -8 -8 -7 -8 -9 -10 -13 -15 -16 -18 -17 -15 -17 -16 -14 -13 -13 -13 -13 -13 -12 -13 -12 -12 -11 -11 -11 -11 -12 -11 -10 -10 -10 -10 -10 -10 -9 -9 -11 -14 -14 -10

GFSMA_850_dewp_024.txt.gz
Dewpoint
5 5 3 4 2 3 4 4 3 3 3 2 1 -1 -1 -1 -1 -2 -2 -3 -7 -9 -9 -9 -6 -3 -2 -1 -2 -1 1 1 -1 -1 -1 -2 -5 -7 -9 -8 1 6 8
6 6 4 4 4 4 4 4 3 2 2 1 1 1 -1 -0 -0 -1 -2 -2 -2 -5 -5 -5 -8 -10 -8 -4 -3 -2 -2 -2 1 1 -0 -0 -0 -3 -7 -9 -9 -5 4
7 6 6 6 5 5 3 2 1 1 1 0 -0 -0 -1 -1 -1 -0 -0 -0 -1 -0 -2 -4 -6 -7 -7 -8 -8 -7 -5 -4 -1 2 2 1 1 0 -1 -5 -7 -8 -8
6 6 6 3 2 2 1 -0 1 1 0 0 -0 -0 -1 -1 -1 -2 -1 1 -0 -0 -2 -2 -6 -7 -8 -8 -7 -7 -5 -5 -6 -5 -2 2 2 1 1 -0 -3 -7 -8
4 3 3 2 1 -0 -1 -0 1 1 1 1 0 -2 -3 -3 -4 -7 -3 0 0 -1 -2 -4 -8 -15 -12 -13 -13 -13 -12 -11 -7 -4 -2 -3 -1 3 1 1 -0 -3 -7
3 1 0 0 -0 1 2 2 1 1 0 -1 -1 -7 -6 -6 -6 -5 -2 -2 -4 -2 -2 -2 -3 -5 -5 -10 -21 -19 -18 -17 -16 -14 -7 -3 -2 -2 3 2 1 0 -2
1 0 1 1 1 1 1 -1 -1 -2 -3 -3 -2 -6 -7 -8 -3 -2 -3 -3 -3 -3 -3 -4 -3 -3 -4 -4 -4 -3 -13 -13 -15 -16 -17 -14 -8 -5 -2 3 3 2 2
1 1 0 1 -0 -2 -0 -1 -2 -3 -4 -4 -3 -5 -8 -9 -10 -3 -5 -5 -5 -4 -4 -4 -4 -4 -4 -4 -4 -4 -4 -9 -12 -12 -13 -8 -15 -14 -8 -4 2 3 2
0 -1 -2 -6 -8 -5 -5 -2 -2 -2 -4 -6 -6 -6 -6 -8 -8 -8 -8 -8 -6 -6 -5 -6 -5 -5 -5 -5 -4 -4 -3 -5 -10 -11 -11 -3 -3 -10 -12 -3 -1 1 4
-3 -6 -8 -8 -4 -3 -2 -3 -4 -3 -4 -6 -7 -7 -6 -6 -7 -7 -8 -8 -8 -8 -8 -8 -7 -7 -7 -6 -4 -4 -3 -5 -8 -9 -7 -3 -2 -2 -2 -3 0 2 2
-1 -1 -2 -2 -2 -1 -2 -2 -3 -3 -5 -5 -7 -7 -7 -8 -8 -8 -9 -10 -10 -10 -10 -10 -10 -9 -9 -8 -8 -6 -5 -6 -7 -8 -8 -3 -2 -2 -2 -3 1 2 2
-3 -2 -1 -1 -1 -2 -2 -2 -2 -3 -4 -5 -7 -7 -8 -8 -9 -9 -10 -10 -11 -12 -11 -11 -11 -10 -10 -10 -9 -9 -8 -8 -9 -8 -6 -5 -5 -6 -7 -7 -4 1 1
-7 -6 -4 -5 -3 -2 -1 -2 -3 -3 -4 -6 -6 -7 -7 -8 -9 -8 -9 -10 -11 -12 -12 -12 -12 -11 -11 -11 -10 -9 -8 -7 -14 -10 -8 -7 -7 -7 -9 -10 -8 -2 0
-8 -7 -7 -5 -3 -2 -1 -3 -3 -4 -3 -4 -6 -7 -7 -8 -9 -9 -10 -10 -10 -11 -12 -12 -13 -12 -12 -12 -11 -11 -10 -10 -9 -9 -8 -8 -9 -10 -10 -11 -13 -6 -6
-8 -8 -7 -5 -3 -2 -2 -3 -4 -3 -3 -4 -6 -6 -7 -8 -9 -10 -10 -9 -8 -7 -9 -11 -12 -13 -13 -13 -12 -12 -11 -10 -9 -8 -9 -11 -9 -9 -9 -10 -12 -12 -5
-7 -7 -7 -6 -5 -4 -4 -3 -4 -4 -4 -5 -7 -6 -6 -8 -9 -10 -10 -10 -10 -9 -10 -12 -13 -13 -12 -12 -12 -12 -11 -10 -10 -10 -10 -11 -10 -12 -11 -11 -11 -13 -10
-6 -6 -6 -5 -5 -5 -4 -4 -4 -3 -5 -7 -6 -6 -7 -8 -9 -10 -10 -11 -11 -12 -12 -13 -12 -12 -12 -11 -11 -10 -10 -10 -10 -11 -9 -9 -9 -9 -12 -13 -13 -12 -13
-6 -6 -5 -5 -5 -4 -3 -3 -3 -6 -6 -7 -7 -7 -7 -8 -10 -10 -11 -11 -12 -12 -11 -11 -12 -11 -11 -11 -11 -10 -11 -10 -10 -11 -7 -7 -9 -10 -10 -12 -14 -14 -14
-6 -5 -5 -5 -5 -4 -5 -5 -5 -6 -6 -6 -6 -7 -8 -9 -10 -11 -11 -12 -12 -11 -10 -10 -11 -11 -11 -11 -11 -10 -10 -9 -10 -10 -9 -9 -12 -12 -12 -13 -15 -16 -16
-6 -5 -5 -5 -4 -5 -4 -5 -6 -5 -6 -7 -7 -8 -10 -11 -11 -11 -11 -11 -11 -11 -11 -11 -11 -11 -11 -12 -12 -11 -10 -10 -9 -8 -9 -9 -11 -12 -12 -14 -15 -17 -16
-5 -5 -5 -4 -5 -5 -6 -6 -6 -6 -7 -9 -10 -11 -12 -12 -15 -12 -11 -11 -11 -11 -11 -11 -11 -11 -11 -11 -10 -11 -11 -12 -11 -10 -7 -8 -9 -10 -9 -7 -9 -14 -14
-6 -6 -5 -4 -5 -6 -7 -8 -8 -9 -9 -11 -12 -13 -12 -12 -11 -12 -12 -12 -12 -11 -11 -10 -10 -11 -11 -12 -12 -12 -11 -10 -10 -10 -8 -8 -8 -10 -10 -8 -7 -12 -7
-5 -6 -5 -5 -6 -6 -7 -7 -10 -10 -11 -11 -12 -12 -12 -12 -12 -11 -12 -12 -11 -11 -11 -11 -11 -10 -10 -11 -10 -11 -11 -11 -9 -10 -9 -8 -9 -9 -9 -11 -9 -9 -6
-6 -6 -5 -6 -6 -7 -8 -9 -10 -12 -11 -11 -11 -11 -11 -12 -12 -12 -12 -12 -12 -12 -13 -12 -11 -11 -11 -11 -10 -10 -10 -11 -10 -11 -10 -10 -10 -10 -9 -8 -9 -10 -7
-6 -6 -6 -6 -6 -7 -8 -9 -11 -12 -9 -10 -11 -11 -12 -13 -12 -13 -13 -12 -13 -13 -12 -12 -12 -13 -13 -13 -12 -11 -10 -11 -10 -10 -12 -11 -10 -10 -10 -8 -8 -9 -10
-7 -7 -7 -6 -7 -7 -9 -10 -12 -13 -10 -10 -10 -11 -13 -16 -19 -14 -13 -13 -12 -12 -12 -12 -12 -12 -12 -11 -11 -11 -10 -11 -11 -10 -9 -10 -10 -9 -9 -9 -8 -8 -11

GFSMA_850_dewp_027.txt.gz
Dewpoint
7 8 8 7 7 6 6 6 5 5 4 3 3 2 2 2 1 1 0 -1 -1 -2 -2 -3 -5 -6 -8 -9 -7 -5 -4 -3 -2 -1 -0 -1 -0 -1 -3 -7 -8 -1 6
5 7 6 6 7 7 7 6 5 4 3 2 2 1 1 1 0 0 0 0 -0 -0 -0 -1 -2 -3 -5 -6 -7 -7 -5 -3 -4 -3 -3 0 -0 -0 -0 -1 -5 -8 -7
6 5 6 7 7 5 2 2 2 2 2 1 1 1 0 -1 -2 -1 -0 -2 -0 1 0 -0 -1 -2 -4 -6 -6 -6 -5 -5 -6 -7 -6 -1 2 0 -0 -0 0 -2 -7
6 6 7 6 4 2 3 3 2 2 2 2 1 1 -0 -4 -5 -3 -5 -7 -1 0 0 -1 -2 -3 -5 -9 -9 -10 -10 -10 -10 -8 -4 -5 -7 -1 2 1 0 -0 -1
6 5 3 3 1 3 3 3 3 3 2 2 -1 -3 -3 -7 -6 -7 -5 -5 -1 -1 -1 -2 -2 -3 -4 -4 -4 -3 -3 -0 -0 -2 -3 -2 -2 -6 -5 -0 2 1 0
3 4 4 1 2 3 3 4 3 2 0 -2 -4 -3 -3 -5 -7 -5 -2 -2 -2 -3 -2 -2 -2 -3 -4 -4 -4 -2 -1 -0 -0 1 0 -0 -0 1 -6 -4 -1 2 2
2 2 3 3 3 3 2 2 1 -1 -3 -4 -4 -4 -5 -7 -8 -8 -7 -3 -4 -4 -4 -4 -4 -4 -4 -4 -4 -3 -1 -1 -0 -1 -1 -1 -2 -1 -2 -8 -4 0 3
2 2 2 2 1 0 -2 -3 -1 -1 -3 -4 -5 -6 -6 -8 -8 -7 -7 -7 -6 -7 -5 -6 -5 -5 -4 -5 -5 -5 -2 -2 -3 -4 -9 -9 -1 -1 -1 -0 -7 -5 -0
2 1 1 0 -1 -2 -3 -3 -2 -2 -3 -4 -4 -6 -6 -7 -7 -8 -8 -8 -8 -6 -6 -7 -7 -7 -6 -6 -6 -5 -4 -6 -6 -6 -5 -3 -2 -2 -1 -1 0 0 -2
1 -1 -2 -1 -1 -1 -1 -2 -3 -3 -3 -4 -5 -5 -6 -7 -8 -9 -9 -9 -9 -10 -11 -10 -9 -9 -9 -9 -8 -8 -7 -5 -6 -8 -7 -3 -1 -1 -2 -2 -1 0 0
-2 -2 -1 -1 -0 -1 -1 -2 -2 -2 -3 -3 -4 -6 -8 -9 -9 -9 -7 -9 -10 -11 -11 -11 -11 -10 -10 -10 -9 -10 -9 -10 -9 -10 -9 -5 -3 -2 -2 -2 -2 -1 -1
-4 -5 -5 -4 -4 -4 -2 -2 -2 -2 -2 -2 -4 -7 -7 -8 -8 -7 -8 -9 -10 -11 -12 -12 -11 -11 -11 -11 -11 -11 -11 -10 -9 -8 -8 -8 -5 -4 -2 -2 -3 -4 -1
-7 -7 -6 -6 -6 -5 -3 -2 -3 -3 -3 -3 -4 -5 -6 -6 -6 -7 -8 -9 -10 -11 -11 -11 -11 -12 -12 -12 -12 -12 -12 -11 -11 -11 -9 -7 -6 -7 -4 -4 -8 -10 -11
-8 -7 -7 -6 -6 -4 -4 -3 -2 -2 -3 -2 -2 -3 -4 -5 -5 -6 -7 -8 -9 -10 -10 -10 -10 -11 -12 -12 -13 -13 -12 -11 -11 -11 -10 -7 -6 -9 -8 -7 -10 -10 -13
-8 -8 -6 -6 -7 -6 -5 -3 -2 -2 -3 -4 -3 -3 -4 -5 -5 -5 -6 -9 -9 -8 -8 -10 -11 -12 -13 -12 -12 -11 -11 -11 -11 -11 -11 -11 -9 -9 -11 -9 -9 -9 -10
-6 -6 -6 -6 -5 -5 -5 -5 -4 -5 -4 -3 -3 -4 -5 -5 -5 -6 -8 -9 -11 -11 -10 -12 -13 -13 -12 -11 -11 -11 -10 -10 -10 -10 -9 -9 -11 -11 -12 -12 -10 -10 -10
-5 -6 -6 -6 -6 -6 -6 -4 -4 -4 -3 -3 -5 -6 -5 -5 -6 -7 -8 -11 -11 -12 -12 -12 -13 -12 -10 -10 -10 -10 -10 -10 -11 -11 -11 -10 -10 -10 -9 -11 -11 -12 -13
-5 -5 -7 -6 -6 -7 -5 -5 -4 -4 -4 -4 -5 -5 -6 -6 -7 -10 -11 -11 -12 -12 -12 -12 -12 -10 -10 -10 -10 -11 -10 -10 -10 -9 -9 -9 -9 -7 -7 -9 -11 -13 -13
-5 -6 -6 -6 -6 -6 -6 -5 -5 -4 -5 -5 -5 -6 -7 -8 -10 -11 -11 -11 -12 -12 -11 -10 -10 -10 -11 -11 -11 -10 -11 -11 -10 -9 -8 -8 -8 -10 -10 -11 -13 -16 -13
-5 -6 -6 -6 -6 -5 -6 -5 -5 -5 -5 -6 -6 -8 -10 -10 -11 -10 -11 -11 -11 -11 -11 -10 -11 -10 -11 -10 -10 -10 -9 -10 -11 -13 -12 -9 -7 -7 -9 -11 -15 -17 -14
-6 -6 -6 -7 -5 -5 -6 -7 -6 -6 -7 -7 -9 -11 -11 -12 -12 -12 -11 -11 -11 -11 -11 -11 -11 -11 -10 -11 -11 -12 -11 -11 -11 -11 -10 -9 -8 -7 -8 -9 -9 -9 -10
-7 -6 -6 -6 -5 -5 -6 -8 -8 -8 -9 -10 -11 -11 -11 -12 -12 -12 -11 -11 -11 -11 -11 -11 -11 -12 -12 -11 -9 -9 -10 -10 -12 -12 -9 -9 -9 -7 -7 -8 -6 -6 -7
-6 -6 -6 -6 -5 -5 -7 -9 -8 -10 -10 -10 -10 -11 -11 -12 -11 -11 -11 -12 -12 -11 -11 -11 -10 -10 -10 -11 -11 -10 -11 -10 -10 -11 -9 -10 -10 -8 -7 -9 -8 -9 -10
-6 -7 -6 -5 -5 -5 -6 -9 -9 -11 -9 -9 -9 -10 -11 -11 -12 -13 -16 -12 -12 -13 -13 -12 -11 -11 -12 -12 -12 -11 -10 -11 -11 -12 -12 -10 -12 -11 -10 -9 -12 -10 -11
-7 -6 -7 -6 -5 -5 -6 -9 -9 -10 -9 -9 -9 -10 -10 -12 -12 -21 -23 -12 -12 -13 -13 -13 -13 -13 -13 -13 -13 -10 -11 -10 -10 -11 -10 -9 -11 -10 -11 -11 -12 -11 -10
-7 -7 -7 -6 -6 -6 -7 -8 -9 -10 -9 -9 -9 -10 -11 -11 -14 -28 -27 -17 -12 -12 -13 -13 -12 -11 -11 -10 -10 -10 -10 -10 -9 -11 -11 -9 -8 -9 -10 -9 -9 -9 -9

GFSMA_850_dewp_030.txt.gz
Dewpoint
8 6 6 5 7 6 6 6 6 5 4 3 2 2 1 1 1 0 0 1 0 -0 -0 1 0 -0 -1 -3 -5 -6 -7 -5 -2 -1 -0 1 0 -1 -1 -2 -3 -7 -7
5 6 8 6 5 3 4 5 2 2 2 2 2 1 1 1 -0 -1 -2 -1 -0 -3 -1 1 0 -1 -1 -2 -4 -6 -6 -5 -6 -6 -3 -1 2 1 0 -0 -0 -2 -5
5 6 5 4 5 6 6 3 1 2 2 2 2 2 0 0 0 -4 -6 -3 -6 -4 0 0 -1 -1 -2 -2 -4 -2 -2 -5 -9 -8 -6 -5 -2 -0 2 3 1 1 -0
6 6 4 4 5 4 2 1 3 3 2 3 2 -1 -4 -4 -4 -5 -6 -6 -6 -5 0 -1 -1 -2 -2 -4 -2 -1 -0 1 1 0 -1 -4 -7 0 0 -1 4 3 2
6 6 4 3 1 1 3 4 4 2 1 -3 -4 -5 -5 -5 -4 -7 -7 -4 -2 -1 -1 -2 -2 -2 -3 -3 -2 -2 -2 0 0 1 1 1 -0 -8 -2 -1 -5 1 4
4 3 3 2 2 3 3 2 1 -1 -3 -5 -4 -5 -4 -4 -7 -7 -5 -3 -3 -3 -3 -4 -4 -3 -4 -4 -3 -2 -0 -1 -0 -1 -1 -0 -0 -1 -7 -8 -6 -5 -2
2 2 3 3 3 2 1 -2 -4 -4 -4 -2 -4 -4 -5 -6 -6 -8 -6 -6 -7 -7 -6 -6 -5 -6 -7 -6 -5 -4 -3 -4 -3 -1 -1 -2 -2 -1 -1 -4 -9 -6 -5
3 2 2 1 0 -2 -6 -4 -3 -3 -2 -3 -4 -4 -4 -5 -6 -7 -8 -9 -8 -8 -7 -6 -7 -7 -8 -7 -7 -7 -4 -5 -6 -4 -3 -3 -3 -2 -2 -1 -2 -5 -3
2 1 0 -2 -4 -3 -2 -2 -2 -2 -3 -3 -4 -4 -4 -4 -6 -7 -8 -9 -9 -9 -9 -10 -10 -10 -9 -8 -9 -10 -8 -8 -8 -8 -8 -4 -4 -3 -1 -2 -1 -2 -2
-2 -2 -1 -1 -0 -0 -3 -2 -1 -2 -2 -2 -3 -3 -5 -5 -7 -7 -8 -8 -9 -9 -10 -10 -11 -10 -11 -10 -10 -10 -10 -10 -10 -9 -10 -7 -6 -5 -3 -2 -3 -1 -2
-2 -2 -2 -3 -2 -1 -3 -3 -2 -2 -2 -2 -2 -3 -5 -6 -7 -8 -7 -8 -9 -10 -10 -11 -11 -12 -11 -11 -11 -11 -10 -10 -10 -10 -10 -8 -7 -6 -5 -3 -2 -3 -2
-3 -4 -6 -5 -7 -11 -7 -5 -3 -3 -2 -3 -3 -4 -4 -4 -6 -6 -7 -7 -7 -8 -9 -10 -11 -11 -11 -10 -11 -11 -12 -11 -12 -12 -11 -9 -8 -7 -7 -4 -3 -3 -2
-6 -7 -7 -9 -9 -11 -7 -4 -3 -2 -2 -4 -3 -4 -4 -4 -4 -5 -5 -6 -6 -8 -9 -9 -10 -10 -10 -11 -12 -11 -12 -12 -12 -11 -11 -10 -9 -7 -6 -5 -4 -3 -3
-6 -8 -8 -7 -10 -8 -6 -5 -4 -3 -3 -2 -3 -3 -4 -3 -3 -4 -5 -5 -6 -7 -8 -8 -9 -10 -11 -12 -10 -12 -12 -12 -12 -12 -12 -11 -13 -10 -9 -7 -6 -5 -3
-8 -8 -7 -7 -6 -6 -5 -5 -5 -5 -4 -3 -3 -4 -4 -4 -3 -4 -5 -5 -6 -5 -8 -9 -10 -11 -11 -12 -12 -12 -11 -11 -11 -10 -10 -11 -12 -10 -8 -8 -7 -7 -5
-6 -6 -5 -6 -6 -6 -6 -6 -5 -5 -4 -4 -4 -3 -3 -3 -4 -5 -6 -6 -7 -9 -9 -10 -10 -11 -12 -12 -12 -12 -11 -11 -12 -12 -13 -12 -10 -9 -9 -9 -8 -8 -7
-6 -5 -5 -5 -6 -6 -6 -6 -5 -8 -5 -5 -6 -4 -4 -4 -5 -5 -7 -8 -10 -10 -10 -11 -12 -12 -11 -11 -13 -12 -12 -13 -14 -11 -10 -11 -10 -9 -9 -9 -9 -9 -11
-6 -5 -5 -6 -6 -6 -6 -6 -6 -4 -8 -4 -4 -4 -5 -6 -7 -8 -9 -11 -11 -11 -11 -11 -10 -10 -10 -12 -11 -11 -11 -11 -10 -11 -11 -10 -11 -10 -10 -10 -9 -9 -8
-6 -5 -5 -6 -6 -6 -6 -6 -5 -6 -6 -5 -5 -6 -7 -7 -9 -10 -10 -10 -13 -12 -11 -11 -11 -12 -12 -12 -12 -12 -12 -11 -10 -12 -11 -11 -12 -11 -9 -8 -7 -8 -10
-6 -5 -5 -6 -6 -6 -5 -6 -5 -6 -6 -6 -7 -7 -8 -10 -11 -11 -12 -13 -13 -12 -12 -12 -12 -13 -13 -12 -12 -12 -10 -11 -11 -12 -12 -13 -12 -11 -9 -9 -9 -10 -11
-5 -5 -6 -6 -6 -6 -4 -6 -6 -9 -7 -7 -9 -10 -11 -11 -12 -12 -12 -12 -11 -11 -12 -13 -13 -13 -12 -12 -12 -10 -10 -10 -13 -12 -11 -11 -11 -10 -10 -10 -7 -9 -8
-6 -7 -6 -6 -6 -5 -6 -6 -7 -9 -9 -12 -10 -10 -10 -11 -12 -12 -11 -11 -11 -12 -13 -12 -12 -11 -11 -10 -10 -10 -12 -13 -11 -14 -12 -13 -13 -13 -11 -7 -7 -7 -7
-8 -7 -6 -6 -6 -5 -5 -6 -6 -10 -11 -11 -9 -10 -10 -10 -11 -11 -11 -13 -21 -14 -12 -12 -11 -10 -11 -11 -12 -14 -14 -12 -12 -14 -12 -14 -14 -11 -12 -11 -8 -8 -8
-8 -7 -6 -6 -6 -4 -5 -6 -6 -8 -11 -11 -9 -9 -9 -10 -10 -13 -14 -22 -26 -19 -13 -13 -12 -13 -13 -14 -14 -13 -13 -12 -12 -13 -11 -10 -11 -12 -12 -12 -13 -14 -14
-7 -7 -6 -6 -7 -5 -5 -6 -6 -8 -9 -11 -10 -10 -9 -10 -11 -11 -14 -25 -27 -23 -14 -13 -16 -16 -14 -12 -11 -10 -11 -10 -11 -11 -12 -10 -12 -9 -11 -12 -11 -11 -11
-6 -6 -6 -6 -6 -6 -5 -6 -6 -8 -9 -11 -10 -10 -11 -10 -10 -12 -17 -25 -26 -22 -25 -20 -15 -13 -13 -11 -11 -10 -10 -10 -9 -11 -11 -10 -10 -11 -10 -9 -9 -8 -10

GFSMA_850_dewp_033.txt.gz
Dewpoint
9 8 7 7 7 6 5 5 6 6 2 0 -0 0 1 1 1 0 -1 -2 -3 -2 -3 -3 1 1 -0 -1 -1 -2 -4 -5 -5 -5 -5 -3 -1 2 3 3 4 4 -0
6 5 5 6 5 5 5 4 5 3 1 -1 -0 1 0 -1 -0 0 -0 -6 -6 -4 -6 1 0 -1 -1 -2 -2 -3 -4 -6 -8 -7 -5 -4 -4 -3 1 4 3 3 4
4 5 6 5 5 5 6 5 3 -0 -0 0 -0 -1 -1 -3 -3 -5 -8 -6 -6 -6 -5 0 -0 -1 -2 -2 -1 0 0 0 0 -0 1 2 1 -1 -3 -1 2 3 4
6 6 6 4 5 3 1 -1 -0 1 2 0 -4 -8 -6 -5 -7 -11 -7 -7 -4 -1 -1 -1 -1 -2 -2 -1 -0 -1 -1 -0 -0 1 -0 0 1 1 1 -1 0 -1 1
6 6 4 3 2 -0 0 1 2 2 -3 -4 -6 -8 -8 -6 -5 -8 -6 -4 -2 -4 -5 -4 -4 -4 -3 -3 -3 -2 -1 -1 -1 -1 0 -2 -1 -1 -7 -5 -1 0 -2
4 2 0 1 0 1 2 2 -1 -6 -7 -7 -7 -7 -7 -10 -8 -7 -7 -6 -5 -5 -6 -6 -5 -5 -5 -6 -6 -7 -3 -2 -2 -3 -4 -2 -1 -1 -2 -3 -2 0 0
2 2 1 2 3 2 0 -4 -6 -6 -7 -7 -7 -8 -11 -6 -7 -6 -6 -7 -8 -9 -9 -8 -8 -8 -9 -8 -8 -7 -6 -4 -3 -4 -4 -3 -3 -3 -3 -2 -1 -0 -0
1 2 2 2 -0 -4 -8 -8 -8 -10 -7 -5 -4 -5 -5 -6 -5 -5 -6 -8 -9 -10 -9 -9 -10 -10 -9 -9 -9 -9 -9 -10 -9 -7 -6 -6 -5 -5 -4 -4 -1 -0 -0
2 1 -1 -3 -3 -4 -5 -6 -7 -7 -3 -3 -3 -4 -3 -4 -5 -6 -7 -8 -9 -10 -9 -10 -10 -10 -11 -11 -11 -10 -10 -10 -9 -8 -8 -6 -6 -6 -6 -5 -3 -1 -2
-2 -2 -2 -2 -4 -4 -4 -3 -5 -5 -5 -4 -3 -3 -4 -4 -5 -5 -7 -8 -8 -10 -13 -12 -12 -12 -12 -11 -11 -10 -11 -10 -10 -10 -11 -7 -6 -6 -6 -6 -6 -3 -1
-1 -1 -2 -2 -3 -3 -4 -8 -15 -6 -2 -2 -2 -2 -3 -4 -6 -5 -5 -6 -7 -9 -8 -8 -10 -13 -14 -14 -11 -10 -11 -11 -11 -11 -9 -8 -8 -8 -7 -7 -7 -6 -2
-2 -3 -3 -4 -5 -7 -16 -21 -13 -8 -3 -2 -3 -4 -4 -3 -3 -4 -5 -5 -6 -7 -7 -8 -9 -12 -12 -12 -12 -12 -13 -10 -11 -11 -11 -8 -8 -7 -7 -8 -8 -6 -4
-3 -4 -5 -8 -10 -15 -18 -15 -10 -6 -4 -4 -4 -3 -3 -3 -3 -3 -3 -3 -4 -7 -7 -8 -9 -11 -10 -10 -13 -10 -11 -10 -11 -12 -12 -11 -9 -8 -8 -8 -8 -8 -5
-3 -10 -10 -14 -14 -11 -13 -13 -13 -7 -5 -2 -2 -2 -3 -3 -4 -3 -3 -3 -4 -5 -7 -8 -10 -10 -10 -10 -10 -11 -12 -12 -13 -13 -12 -12 -11 -9 -8 -8 -8 -7 -7
-6 -12 -12 -11 -10 -11 -10 -8 -7 -7 -5 -4 -3 -4 -4 -3 -3 -3 -3 -4 -4 -5 -6 -9 -9 -10 -10 -10 -11 -11 -12 -12 -12 -13 -11 -12 -13 -10 -9 -8 -7 -7 -6
-8 -8 -9 -8 -7 -6 -8 -6 -6 -5 -5 -5 -8 -7 -6 -4 -3 -4 -5 -5 -6 -8 -9 -10 -10 -11 -11 -12 -12 -12 -12 -13 -14 -14 -14 -13 -11 -9 -9 -9 -8 -7 -7
-5 -7 -6 -6 -5 -5 -7 -6 -6 -6 -6 -8 -8 -5 -5 -4 -5 -5 -6 -7 -8 -9 -10 -11 -12 -13 -14 -13 -13 -13 -13 -13 -13 -13 -12 -13 -13 -11 -10 -10 -10 -11 -10
-6 -6 -6 -5 -5 -5 -7 -6 -6 -6 -6 -7 -6 -5 -5 -5 -7 -8 -9 -10 -11 -11 -11 -14 -17 -16 -14 -14 -14 -14 -14 -13 -12 -11 -11 -12 -12 -10 -10 -11 -11 -10 -10
-6 -6 -5 -5 -5 -5 -6 -6 -6 -5 -7 -7 -6 -6 -7 -8 -8 -9 -11 -11 -11 -13 -16 -14 -15 -16 -15 -15 -14 -14 -13 -14 -12 -13 -12 -12 -12 -13 -14 -13 -12 -11 -9
-6 -6 -6 -5 -5 -7 -6 -6 -6 -5 -6 -8 -9 -7 -8 -9 -10 -11 -11 -12 -13 -14 -14 -14 -16 -14 -13 -14 -12 -11 -11 -12 -14 -15 -15 -15 -13 -12 -13 -13 -12 -12 -12
-7 -8 -6 -6 -7 -6 -6 -6 -6 -6 -6 -7 -10 -10 -10 -10 -11 -11 -12 -12 -12 -12 -12 -15 -14 -12 -13 -12 -11 -11 -12 -14 -16 -16 -16 -16 -14 -16 -15 -15 -14 -9 -10
-10 -7 -7 -7 -7 -6 -6 -6 -6 -6 -6 -9 -13 -15 -10 -10 -11 -11 -11 -11 -11 -12 -17 -20 -12 -12 -11 -11 -12 -13 -14 -15 -15 -17 -13 -14 -13 -14 -13 -14 -12 -9 -6
-9 -8 -8 -7 -6 -6 -6 -6 -5 -6 -6 -8 -11 -13 -10 -9 -10 -11 -11 -11 -15 -19 -26 -19 -12 -11 -11 -12 -13 -14 -13 -11 -12 -13 -11 -11 -12 -12 -13 -12 -12 -12 -9
-10 -9 -7 -7 -6 -6 -6 -6 -5 -6 -6 -7 -9 -12 -9 -9 -10 -11 -12 -13 -16 -21 -25 -18 -12 -12 -14 -14 -12 -11 -11 -10 -11 -14 -11 -10 -12 -11 -12 -11 -12 -12 -11
-7 -6 -6 -6 -6 -6 -6 -6 -5 -5 -6 -7 -9 -12 -11 -10 -10 -12 -12 -13 -18 -21 -22 -22 -18 -15 -14 -13 -11 -11 -11 -11 -11 -12 -12 -9 -11 -12 -12 -14 -10 -9 -9
-8 -7 -5 -6 -6 -6 -6 -6 -6 -6 -6 -8 -10 -11 -12 -11 -12 -13 -13 -17 -18 -18 -17 -16 -19 -18 -14 -13 -12 -12 -12 -11 -11 -11 -12 -9 -10 -9 -10 -12 -13 -12 -11

GFSMA_850_dewp_036.txt.gz
Dewpoint
8 8 7 7 6 6 6 6 6 6 6 4 -1 -1 -0 1 -1 -1 -1 -1 -2 -6 -5 -3 1 0 0 -1 -1 -1 -2 -5 -6 -7 -7 -5 -3 -2 -0 2 3 2 2
8 8 7 7 7 6 5 5 5 4 2 -0 -1 -1 -3 -3 -2 -2 -3 -6 -7 -6 -4 -0 1 2 -0 0 -0 0 1 0 -3 -3 -1 -4 -4 -3 -1 -1 1 3 3
5 6 6 7 6 5 4 4 2 -0 -0 -1 -0 -4 -12 -8 -6 -7 -11 -9 -7 -3 0 1 -0 0 -1 1 -0 -2 0 0 0 -1 -1 -2 -5 -7 -9 -6 -5 -4 -1
4 6 7 6 4 4 2 -1 -1 -1 -2 0 -8 -13 -10 -7 -6 -8 -6 -4 -3 -1 1 -0 -3 -3 -2 -1 -1 -0 0 -0 -1 -0 -0 -1 -6 -6 -11 -8 -3 -2 -6
6 6 6 5 3 1 -0 -0 -0 0 -4 -11 -7 -7 -6 -6 -8 -7 -7 -6 -5 -5 -2 -2 -5 -5 -6 -6 -5 -4 -2 -2 -1 -2 -5 -1 -1 -2 -2 -7 -3 -0 -0
6 6 5 2 1 0 0 -0 -3 -10 -8 -7 -7 -6 -7 -9 -5 -6 -7 -7 -7 -8 -8 -8 -8 -8 -9 -9 -7 -5 -5 -4 -3 -3 -3 -4 -4 -3 -3 -2 -2 -1 0
4 1 1 1 0 0 -1 -7 -8 -8 -12 -10 -7 -5 -8 -5 -8 -6 -5 -6 -7 -8 -9 -10 -9 -9 -10 -9 -9 -7 -6 -6 -5 -5 -5 -5 -6 -5 -5 -4 -4 -3 -2
-0 1 1 0 -0 -3 -6 -7 -7 -10 -13 -7 -6 -6 -7 -7 -6 -8 -7 -7 -9 -10 -10 -10 -10 -11 -11 -11 -11 -11 -9 -8 -7 -7 -6 -6 -6 -6 -6 -6 -5 -4 -4
1 1 -0 -2 -1 -1 -6 -6 -5 -6 -9 -8 -5 -4 -4 -4 -3 -5 -5 -7 -8 -8 -8 -10 -13 -12 -12 -13 -14 -14 -12 -11 -11 -10 -9 -6 -6 -7 -6 -6 -6 -6 -5
2 1 -0 -0 -1 -2 -4 -4 -5 -10 -14 -6 -4 -3 -2 -2 -3 -4 -5 -6 -6 -6 -7 -9 -13 -12 -13 -12 -14 -14 -12 -10 -11 -11 -10 -7 -7 -7 -7 -7 -7 -7 -6
2 1 -0 -1 -1 -3 -4 -5 -10 -23 -19 -13 -3 -1 -3 -4 -4 -3 -3 -4 -5 -5 -6 -8 -11 -10 -10 -10 -12 -14 -15 -14 -12 -9 -7 -8 -7 -7 -7 -7 -7 -7 -7
-0 -1 -2 -3 -3 -4 -7 -12 -23 -22 -20 -8 -4 -3 -3 -3 -2 -3 -3 -3 -4 -4 -4 -6 -8 -9 -9 -10 -11 -10 -12 -12 -10 -10 -11 -8 -7 -8 -8 -8 -8 -7 -7
-1 -2 -1 -1 -6 -8 -15 -18 -20 -20 -14 -8 -5 -3 -3 -3 -3 -3 -3 -3 -3 -3 -4 -6 -8 -9 -10 -11 -11 -10 -10 -10 -11 -11 -12 -12 -10 -9 -9 -8 -8 -8 -7
-1 -2 -4 -3 -10 -14 -13 -14 -17 -13 -9 -8 -6 -4 -4 -4 -4 -5 -3 -3 -3 -3 -5 -7 -8 -9 -10 -10 -10 -11 -11 -11 -11 -12 -12 -13 -14 -10 -9 -9 -8 -8 -8
-3 -2 -3 -8 -9 -9 -10 -10 -13 -9 -7 -6 -6 -6 -8 -9 -8 -3 -3 -4 -4 -4 -6 -7 -8 -9 -10 -11 -12 -13 -13 -13 -14 -14 -14 -15 -10 -9 -8 -8 -7 -7 -7
-3 -5 -4 -5 -7 -7 -7 -7 -9 -8 -6 -6 -6 -8 -9 -8 -6 -5 -4 -5 -5 -6 -6 -9 -10 -11 -13 -17 -20 -19 -18 -16 -16 -14 -14 -13 -13 -9 -10 -9 -8 -8 -8
-4 -1 -3 -6 -6 -6 -5 -5 -6 -7 -6 -6 -6 -8 -7 -5 -6 -6 -7 -7 -8 -9 -11 -12 -13 -16 -19 -20 -19 -17 -15 -15 -14 -14 -13 -13 -12 -11 -13 -10 -10 -10 -10
-1 -5 -6 -6 -6 -5 -5 -5 -7 -7 -6 -6 -6 -7 -8 -6 -6 -8 -8 -9 -11 -11 -11 -13 -17 -18 -20 -18 -16 -15 -15 -15 -15 -15 -14 -14 -14 -13 -13 -12 -12 -13 -15
-4 -6 -6 -5 -5 -5 -5 -6 -7 -6 -6 -5 -6 -7 -9 -7 -8 -8 -9 -11 -11 -12 -13 -15 -15 -17 -21 -17 -16 -15 -14 -14 -14 -15 -16 -17 -16 -16 -14 -13 -14 -14 -14
-3 -4 -5 -6 -7 -5 -6 -7 -6 -5 -6 -5 -6 -7 -9 -8 -9 -10 -10 -11 -11 -12 -13 -13 -15 -22 -21 -16 -14 -13 -13 -14 -16 -17 -17 -15 -14 -14 -15 -16 -15 -15 -14
-4 -4 -8 -9 -8 -7 -10 -7 -6 -6 -6 -5 -5 -7 -11 -15 -13 -10 -10 -11 -11 -12 -11 -15 -20 -24 -18 -14 -12 -12 -13 -14 -16 -16 -13 -13 -13 -13 -14 -15 -16 -17 -15
-1 -6 -7 -8 -9 -9 -7 -6 -6 -5 -5 -5 -5 -7 -9 -13 -13 -12 -11 -11 -11 -11 -14 -18 -24 -23 -15 -12 -12 -12 -13 -13 -12 -13 -10 -14 -13 -13 -13 -14 -12 -13 -13
-3 -7 -6 -9 -9 -7 -7 -6 -6 -6 -6 -5 -6 -7 -8 -10 -13 -11 -11 -11 -10 -12 -15 -21 -24 -20 -16 -14 -15 -13 -12 -12 -11 -12 -12 -12 -14 -12 -12 -13 -12 -10 -12
-4 -7 -9 -9 -8 -7 -6 -6 -6 -6 -5 -5 -5 -6 -7 -10 -12 -11 -11 -11 -12 -14 -18 -20 -21 -20 -17 -14 -13 -12 -11 -11 -12 -14 -13 -12 -13 -12 -11 -13 -13 -10 -10
-9 -9 -8 -9 -7 -6 -6 -6 -5 -5 -5 -5 -6 -6 -8 -11 -12 -12 -11 -12 -15 -19 -19 -17 -16 -17 -17 -14 -12 -12 -12 -12 -13 -14 -14 -11 -12 -10 -11 -12 -14 -12 -12
-8 -10 -8 -7 -8 -7 -6 -5 -5 -5 -5 -6 -7 -7 -10 -12 -12 -12 -13 -14 -18 -19 -17 -16 -16 -15 -17 -17 -15 -13 -12 -12 -12 -12 -13 -11 -10 -9 -9 -11 -12 -13 -12

GFSMA_850_dewp_039.txt.gz
Dewpoint
7 7 7 7 6 6 6 6 6 6 4 2 -0 -1 -3 -6 -10 -10 -10 -7 -6 -7 -3 1 3 3 1 0 -1 -1 -1 -3 -4 -2 -4 -6 -7 -8 -9 -8 -7 -6 -4
7 7 7 7 6 6 6 6 6 4 2 -0 -1 -1 -5 -13 -14 -12 -12 -17 -17 -8 -4 3 2 3 2 2 2 1 1 0 1 -1 -4 -5 -5 -7 -10 -13 -15 -13 -8
7 8 8 7 7 7 6 5 4 -0 -1 -1 -2 -5 -14 -15 -13 -12 -13 -10 -7 -5 -1 1 0 2 1 1 0 1 0 1 0 1 1 0 -2 -4 -7 -9 -13 -16 -16
7 8 7 7 7 6 4 2 -1 -1 -2 -5 -13 -14 -13 -10 -8 -10 -10 -6 -3 -1 0 0 -0 -3 -2 -3 -2 -1 -1 -1 -1 -0 0 -0 -1 -2 -1 -10 -6 -3 -1
6 7 7 7 6 4 1 -0 -1 -3 -10 -13 -15 -11 -8 -8 -9 -9 -8 -7 -7 -5 -3 -2 -3 -5 -6 -7 -5 -3 -3 -3 -3 -2 -2 -2 -3 -4 -3 -3 -2 -2 -1
6 7 7 6 4 1 -0 -1 -4 -10 -11 -15 -13 -12 -13 -12 -7 -7 -8 -9 -8 -7 -8 -8 -9 -10 -10 -10 -10 -8 -5 -4 -4 -3 -4 -4 -5 -5 -5 -4 -4 -3 -3
7 7 6 3 0 -0 -1 -4 -7 -9 -12 -14 -17 -16 -15 -10 -7 -7 -6 -10 -8 -10 -10 -10 -10 -11 -12 -11 -10 -11 -8 -6 -7 -6 -6 -6 -6 -6 -6 -6 -5 -5 -4
6 5 2 0 -0 -1 -2 -4 -7 -9 -12 -14 -19 -16 -9 -8 -6 -7 -5 -5 -8 -8 -9 -8 -8 -9 -13 -12 -12 -14 -15 -15 -10 -8 -7 -6 -6 -6 -6 -6 -6 -6 -5
3 1 1 1 -1 -1 -1 -3 -6 -8 -9 -16 -18 -10 -6 -5 -4 -5 -5 -5 -7 -8 -8 -7 -7 -8 -12 -13 -13 -12 -12 -13 -13 -9 -8 -7 -6 -6 -6 -6 -6 -6 -6
2 2 2 -1 -1 -0 -1 0 -4 -6 -12 -22 -17 -9 -2 -2 -2 -4 -4 -5 -4 -5 -5 -5 -6 -6 -10 -10 -10 -10 -11 -13 -14 -12 -8 -7 -7 -7 -6 -7 -7 -6 -6
3 2 1 -0 -1 -1 -0 -5 -7 -13 -21 -22 -14 -4 -2 -3 -3 -3 -2 -3 -3 -4 -4 -4 -4 -5 -7 -8 -10 -11 -11 -13 -13 -13 -8 -7 -7 -7 -7 -7 -8 -7 -7
3 2 -0 -1 -2 -1 1 -5 -13 -18 -20 -18 -11 -6 -4 -3 -3 -2 -3 -3 -4 -4 -4 -3 -3 -4 -6 -9 -10 -11 -11 -11 -11 -10 -10 -10 -7 -7 -7 -7 -8 -8 -8
4 2 -0 -1 -3 -0 -0 -10 -13 -16 -18 -13 -10 -8 -6 -5 -5 -6 -5 -4 -4 -5 -4 -4 -4 -5 -8 -9 -10 -10 -10 -10 -11 -11 -11 -11 -10 -8 -8 -8 -9 -9 -8
3 1 -0 1 -2 0 -7 -9 -9 -13 -15 -13 -8 -7 -6 -7 -10 -11 -8 -4 -3 -4 -5 -5 -6 -7 -9 -9 -10 -11 -14 -16 -16 -16 -16 -16 -16 -12 -9 -9 -8 -8 -7
1 -0 -1 1 1 -2 -5 -8 -7 -8 -7 -9 -7 -6 -6 -7 -11 -9 -7 -6 -5 -4 -5 -6 -8 -9 -10 -14 -16 -20 -21 -22 -21 -19 -17 -16 -10 -9 -9 -8 -8 -8 -7
-1 0 2 -1 0 -2 -3 -6 -6 -5 -6 -8 -7 -6 -6 -7 -10 -8 -7 -7 -8 -8 -8 -9 -11 -12 -14 -17 -19 -21 -20 -19 -17 -16 -15 -15 -12 -10 -9 -9 -8 -9 -8
2 1 -3 -1 -3 -5 -5 -5 -5 -5 -6 -7 -6 -6 -6 -8 -9 -9 -7 -8 -8 -9 -10 -12 -13 -14 -17 -19 -21 -21 -18 -17 -16 -16 -16 -15 -12 -12 -14 -14 -13 -10 -9
-3 -4 -2 -4 -5 -5 -5 -5 -5 -6 -8 -6 -6 -6 -6 -7 -8 -8 -7 -8 -9 -10 -11 -11 -14 -15 -18 -20 -22 -20 -17 -16 -15 -15 -15 -17 -18 -18 -16 -14 -14 -13 -12
-4 -2 -1 -3 -5 -5 -5 -5 -5 -9 -7 -6 -6 -5 -5 -7 -8 -9 -8 -9 -10 -11 -11 -12 -13 -16 -19 -22 -22 -19 -16 -16 -19 -20 -17 -17 -15 -14 -15 -17 -16 -15 -14
-0 -1 -3 -4 -4 -6 -6 -6 -9 -9 -6 -6 -5 -4 -5 -6 -10 -12 -14 -11 -10 -11 -11 -12 -13 -17 -20 -22 -21 -15 -18 -18 -21 -17 -16 -13 -13 -13 -13 -13 -14 -17 -17
-1 -1 -3 -3 -4 -4 -5 -9 -7 -6 -6 -6 -4 -4 -5 -6 -8 -10 -13 -11 -11 -11 -11 -12 -14 -17 -21 -22 -17 -16 -18 -18 -15 -15 -14 -15 -14 -15 -14 -13 -13 -14 -15
-2 -3 -1 -1 -2 -5 -7 -8 -6 -6 -6 -5 -5 -5 -5 -6 -7 -8 -11 -11 -11 -11 -11 -12 -15 -19 -22 -19 -19 -17 -15 -13 -12 -12 -12 -15 -15 -16 -14 -11 -13 -12 -11
-2 -0 -1 -5 -5 -8 -9 -9 -7 -6 -6 -6 -5 -5 -5 -6 -6 -8 -11 -11 -10 -11 -11 -13 -17 -20 -19 -18 -17 -17 -14 -12 -11 -12 -13 -15 -16 -14 -11 -12 -12 -14 -10
-1 -3 -4 -7 -8 -11 -11 -9 -6 -6 -5 -5 -5 -5 -5 -6 -7 -9 -10 -11 -11 -11 -13 -16 -19 -17 -16 -18 -17 -14 -12 -12 -13 -14 -14 -14 -14 -14 -12 -12 -13 -14 -12
-4 -7 -8 -10 -12 -12 -11 -10 -7 -6 -5 -5 -5 -5 -6 -7 -8 -12 -11 -11 -11 -13 -15 -18 -16 -15 -15 -17 -16 -16 -15 -13 -13 -14 -14 -11 -14 -12 -11 -13 -13 -13 -12
-8 -8 -11 -11 -11 -10 -8 -9 -8 -8 -7 -5 -5 -6 -6 -7 -8 -11 -12 -11 -13 -14 -17 -17 -15 -15 -15 -15 -15 -15 -15 -14 -13 -13 -12 -13 -13 -11 -10 -11 -10 -11 -12

GFSMA_850_dewp_042.txt.gz
Dewpoint
6 6 6 6 6 6 6 6 6 6 5 4 1 -1 -3 -9 -17 -19 -18 -16 -16 -13 -0 1 3 3 3 2 0 2 2 2 2 1 1 -1 -3 -4 -6 -8 -10 -12 -14
7 8 7 7 7 6 6 6 6 5 4 -1 -1 -3 -9 -17 -19 -21 -21 -21 -18 -9 -0 1 2 2 2 2 1 1 0 0 -0 1 1 1 0 -1 -1 -2 -8 -14 -18
7 7 7 7 7 6 6 6 5 2 -1 -1 -3 -12 -16 -20 -20 -17 -18 -13 -7 -6 -3 -1 1 2 1 2 1 -0 -0 -0 -1 -2 -1 -0 -1 -1 -2 -1 -7 -2 -3
8 8 8 7 7 7 6 5 2 -1 -1 -5 -13 -16 -20 -18 -15 -12 -10 -8 -6 -3 -1 0 0 -1 -3 -4 -4 -4 -2 -2 -2 -1 -1 -2 -2 -3 -4 -2 -7 -2 -2
6 8 8 8 7 7 5 2 -0 -1 -5 -11 -16 -20 -18 -15 -11 -8 -8 -9 -8 -7 -6 -4 -3 -6 -8 -10 -10 -6 -4 -3 -3 -3 -2 -2 -3 -4 -4 -4 -4 -3 -3
5 6 7 7 7 5 2 0 -1 -4 -9 -13 -15 -17 -17 -12 -8 -6 -8 -9 -11 -11 -9 -9 -9 -11 -11 -12 -12 -8 -5 -5 -4 -4 -5 -5 -5 -5 -5 -5 -5 -4 -4
6 7 7 7 5 2 1 -1 -3 -6 -8 -10 -14 -15 -12 -10 -8 -7 -7 -8 -8 -9 -10 -9 -10 -9 -10 -9 -12 -12 -10 -7 -7 -6 -6 -5 -5 -5 -5 -5 -5 -5 -5
7 7 6 5 2 1 0 -1 -3 -5 -7 -10 -16 -17 -12 -9 -6 -6 -7 -7 -7 -8 -8 -8 -8 -7 -8 -8 -12 -13 -13 -12 -12 -8 -7 -6 -6 -6 -5 -5 -5 -5 -5
6 6 5 3 2 1 -1 -1 -2 -5 -9 -12 -18 -21 -11 -7 -5 -5 -6 -6 -6 -7 -6 -5 -6 -5 -6 -6 -9 -9 -10 -11 -11 -11 -7 -7 -7 -6 -6 -6 -5 -5 -6
5 5 4 2 2 -1 -1 -1 -3 -3 -4 -12 -22 -20 -11 -4 -3 -4 -5 -4 -5 -5 -6 -5 -5 -5 -5 -5 -7 -8 -9 -10 -11 -12 -8 -7 -6 -6 -6 -6 -6 -6 -6
5 4 3 2 -1 -1 -1 0 1 -1 -1 -19 -22 -21 -12 -7 -5 -3 -3 -4 -4 -6 -6 -7 -5 -4 -4 -4 -5 -7 -9 -10 -11 -12 -14 -14 -7 -7 -7 -7 -7 -6 -6
5 4 3 2 -1 -1 -2 1 3 1 -15 -15 -17 -15 -10 -6 -6 -5 -7 -9 -10 -11 -6 -4 -7 -3 -4 -4 -6 -9 -10 -11 -12 -13 -14 -12 -11 -7 -7 -7 -7 -7 -7
5 4 3 2 0 -1 1 3 2 -6 -6 -10 -16 -12 -9 -7 -6 -7 -10 -12 -9 -9 -5 -4 -5 -5 -4 -5 -7 -9 -10 -12 -14 -17 -19 -17 -15 -10 -8 -8 -8 -8 -8
5 4 3 1 -1 1 3 2 1 -6 -9 -9 -8 -10 -7 -7 -7 -7 -11 -9 -6 -5 -5 -5 -5 -7 -8 -9 -9 -14 -18 -20 -23 -24 -24 -23 -22 -20 -12 -8 -8 -8 -8
6 4 3 4 3 3 2 0 -4 -7 -8 -6 -6 -8 -7 -6 -7 -8 -10 -9 -7 -5 -6 -8 -8 -9 -11 -13 -16 -19 -22 -23 -23 -21 -20 -19 -18 -11 -9 -9 -8 -8 -7
6 5 5 2 3 1 -1 -2 -5 -6 -5 -5 -7 -7 -6 -6 -7 -8 -9 -9 -7 -8 -9 -10 -10 -11 -12 -14 -16 -19 -22 -23 -20 -19 -17 -17 -16 -12 -10 -10 -9 -9 -9
6 4 2 1 -1 -1 -4 -2 -4 -5 -5 -6 -8 -7 -6 -6 -6 -7 -8 -10 -9 -8 -9 -10 -11 -11 -13 -15 -18 -21 -22 -22 -19 -17 -16 -16 -17 -16 -15 -16 -15 -11 -10
5 -1 -0 -2 -1 -2 -2 -2 -5 -5 -5 -9 -8 -6 -6 -5 -6 -7 -8 -10 -9 -8 -9 -10 -11 -12 -14 -16 -20 -22 -22 -20 -18 -17 -18 -22 -20 -17 -15 -15 -17 -17 -16
-1 1 -2 -2 -1 0 -2 -3 -4 -5 -7 -9 -6 -5 -5 -5 -5 -6 -8 -10 -12 -11 -11 -11 -12 -13 -15 -18 -21 -22 -22 -20 -20 -20 -18 -17 -14 -14 -14 -13 -14 -14 -15
-1 -3 -1 0 -2 -2 -2 -3 -4 -4 -7 -7 -6 -6 -5 -5 -5 -6 -9 -10 -12 -12 -11 -12 -12 -13 -15 -19 -21 -21 -21 -20 -19 -17 -15 -13 -14 -14 -15 -14 -13 -14 -14
-2 -1 -1 -0 -0 -1 -2 -3 -3 -6 -7 -6 -6 -6 -5 -5 -5 -6 -7 -9 -10 -11 -11 -11 -12 -13 -17 -20 -21 -19 -18 -19 -18 -16 -15 -14 -16 -17 -17 -16 -13 -12 -13
-1 -0 0 -0 -1 -1 -2 -6 -7 -8 -7 -7 -6 -5 -5 -5 -5 -5 -7 -7 -9 -11 -10 -11 -11 -13 -18 -20 -19 -18 -18 -15 -12 -14 -14 -15 -15 -17 -16 -13 -12 -13 -13
-0 -0 -0 -0 -2 -5 -5 -7 -9 -10 -8 -6 -6 -5 -5 -5 -5 -5 -6 -7 -10 -10 -10 -10 -12 -15 -19 -18 -17 -17 -16 -14 -13 -16 -14 -15 -16 -16 -15 -13 -13 -13 -13
-0 -0 -1 -4 -6 -8 -9 -12 -12 -11 -9 -7 -6 -5 -5 -5 -5 -6 -7 -9 -11 -10 -10 -10 -12 -17 -18 -17 -16 -16 -15 -15 -16 -17 -17 -14 -15 -15 -15 -14 -14 -13 -13
-2 -3 -7 -8 -9 -12 -11 -10 -10 -11 -11 -8 -6 -5 -5 -5 -6 -6 -7 -10 -12 -11 -10 -11 -14 -18 -17 -16 -14 -14 -15 -15 -15 -15 -17 -12 -14 -15 -16 -15 -12 -12 -11
-6 -8 -9 -9 -11 -11 -11 -10 -9 -9 -9 -8 -8 -7 -7 -6 -6 -6 -7 -9 -11 -13 -12 -12 -17 -17 -16 -16 -15 -15 -14 -15 -14 -15 -15 -14 -13 -12 -13 -15 -13 -13 -11

GFSMA_850_dewp_048.txt.gz
Dewpoint
-1 1 3 5 6 6 6 6 6 6 6 5 0 -2 -5 -12 -16 -13 -3 -19 -23 -15 4 3 3 0 1 -0 -0 1 2 1 1 0 1 0 1 0 -0 -0 -5 -18 -20
-1 -0 3 6 6 7 6 6 6 6 5 3 -2 -4 -10 -15 -17 -16 -2 -2 -17 -13 0 3 3 2 2 1 2 1 0 0 0 0 -0 0 -0 0 -0 -1 -1 -7 -6
3 5 6 6 6 7 7 6 6 6 4 -0 -2 -7 -12 -14 -13 -12 -3 -1 0 -3 -2 -2 -2 -2 -1 1 1 1 -1 -1 -1 -1 -1 -0 -1 -1 -1 -2 -2 -2 -4
7 7 8 8 8 7 7 6 6 5 1 -1 -4 -8 -11 -11 -15 -9 -2 -3 -2 -1 -1 -3 -2 1 0 -0 -2 -4 -3 -3 -2 -2 -1 -1 -1 -1 -2 -2 -2 -3 -3
7 7 7 7 7 7 7 6 6 3 0 -3 -3 -5 -5 -7 -10 -9 -8 -9 -10 -5 -6 -5 -9 -6 -5 -6 -9 -10 -4 -3 -3 -2 -2 -2 -2 -2 -2 -2 -3 -3 -3
7 7 7 7 8 7 7 6 5 1 -1 -2 -5 -3 -3 -8 -8 -5 -5 -6 -6 -7 -6 -7 -7 -7 -8 -9 -9 -8 -5 -4 -4 -4 -3 -3 -4 -3 -3 -3 -3 -3 -3
7 7 6 6 8 8 6 6 3 0 -2 -2 -1 -1 -1 -7 -5 -4 -4 -5 -5 -4 -5 -6 -6 -7 -7 -7 -7 -7 -7 -5 -4 -4 -4 -4 -4 -3 -3 -3 -4 -4 -4
6 5 5 6 7 7 6 5 2 -0 0 0 -1 -1 -2 -2 -2 -2 -3 -4 -4 -4 -6 -5 -4 -4 -5 -7 -6 -6 -6 -6 -6 -6 -4 -4 -4 -4 -3 -4 -4 -4 -4
7 6 6 6 7 7 6 4 2 -0 0 1 1 -0 -2 -2 -3 -4 -2 -2 -3 -4 -4 -4 -4 -4 -5 -5 -5 -5 -5 -6 -5 -5 -6 -4 -4 -4 -4 -4 -4 -4 -4
8 7 6 6 7 7 5 4 1 -0 -0 1 1 1 -2 -3 -4 -4 -3 -3 -2 -3 -4 -4 -5 -5 -4 -4 -5 -5 -5 -6 -5 -5 -6 -9 -6 -5 -5 -5 -5 -5 -5
9 8 6 7 7 6 5 3 1 -1 -0 3 2 -0 -1 -1 -2 -5 -8 -8 -6 -6 -6 -6 -6 -5 -4 -4 -5 -4 -5 -5 -6 -6 -7 -9 -10 -12 -8 -6 -6 -5 -5
9 8 7 7 6 5 4 3 1 -1 1 2 3 -2 -2 -4 -6 -5 -5 -6 -6 -7 -7 -5 -5 -5 -5 -5 -6 -7 -6 -5 -7 -8 -10 -15 -22 -23 -12 -8 -7 -7 -7
9 8 7 6 6 5 4 2 1 -1 1 3 0 -2 -4 -5 -5 -5 -5 -6 -7 -8 -8 -6 -6 -6 -6 -6 -5 -7 -10 -14 -17 -20 -22 -23 -26 -26 -23 -17 -9 -8 -7
9 8 7 6 6 5 4 2 1 0 2 -2 -4 -7 -4 -3 -3 -4 -5 -7 -6 -6 -8 -9 -8 -6 -6 -7 -7 -11 -11 -11 -16 -23 -25 -27 -27 -27 -26 -25 -20 -8 -8
9 9 8 7 6 5 4 1 0 2 -0 -6 -6 -4 -1 -3 -3 -4 -5 -5 -5 -4 -6 -9 -10 -8 -7 -8 -8 -9 -10 -11 -18 -24 -28 -28 -26 -25 -23 -21 -10 -8 -8
9 9 8 8 7 6 3 0 1 -1 -1 -4 -1 -1 -1 -3 -4 -4 -4 -4 -5 -6 -6 -8 -9 -9 -8 -8 -9 -10 -10 -12 -17 -22 -27 -27 -24 -23 -21 -20 -14 -11 -10
9 8 8 8 7 6 2 0 1 0 -2 0 -0 -1 -2 -3 -4 -4 -4 -4 -5 -6 -7 -8 -9 -10 -8 -8 -9 -10 -10 -12 -15 -16 -18 -24 -22 -21 -21 -21 -21 -20 -13
9 9 8 8 7 5 1 1 0 -1 -1 -0 -1 -1 -2 -4 -4 -4 -4 -4 -5 -5 -6 -8 -9 -10 -10 -10 -9 -10 -11 -14 -15 -14 -16 -23 -22 -22 -21 -18 -17 -17 -16
8 8 8 6 5 1 -0 1 1 -0 -1 -1 -2 -1 -2 -3 -4 -3 -4 -4 -5 -6 -7 -8 -9 -10 -10 -10 -10 -11 -12 -14 -14 -15 -16 -15 -13 -18 -17 -16 -16 -16 -17
7 7 6 4 2 0 1 -0 -0 -0 -1 -1 -2 -2 -3 -2 -4 -4 -4 -4 -4 -5 -7 -8 -9 -10 -10 -11 -11 -12 -14 -16 -15 -15 -14 -13 -12 -12 -12 -11 -12 -15 -17
6 6 4 2 0 0 0 0 -0 -0 -1 -1 -2 -1 -3 -4 -6 -5 -5 -6 -5 -5 -6 -8 -9 -10 -11 -11 -12 -13 -13 -15 -14 -14 -13 -13 -13 -13 -13 -12 -11 -11 -10
0 -1 -0 -0 -0 -0 0 -0 -0 -1 -2 -2 -3 -4 -4 -5 -6 -8 -6 -5 -6 -5 -6 -7 -7 -7 -10 -11 -12 -12 -14 -14 -14 -13 -13 -13 -13 -13 -13 -12 -11 -11 -14
-1 -1 -1 0 0 0 0 -1 -2 -5 -3 -4 -4 -5 -6 -7 -6 -6 -5 -6 -6 -5 -5 -6 -6 -7 -9 -10 -11 -12 -14 -13 -13 -13 -13 -13 -13 -12 -12 -12 -11 -11 -14
-1 0 0 0 -1 -2 -4 -6 -8 -8 -6 -5 -5 -5 -6 -7 -6 -5 -5 -5 -6 -6 -6 -6 -7 -8 -9 -10 -10 -12 -13 -11 -12 -12 -13 -13 -13 -12 -12 -11 -11 -11 -12
0 -1 -1 -2 -2 -3 -6 -8 -8 -8 -5 -5 -6 -6 -6 -6 -7 -7 -8 -5 -6 -6 -6 -6 -7 -8 -10 -11 -11 -11 -11 -12 -11 -12 -13 -13 -13 -13 -12 -12 -11 -9 -9
-2 -3 -4 -4 -6 -11 -12 -12 -10 -9 -8 -7 -6 -6 -6 -6 -10 -9 -8 -8 -6 -7 -7 -6 -8 -9 -10 -12 -12 -14 -11 -11 -11 -11 -13 -13 -13 -13 -13 -12 -11 -11 -11

GFSMA_850_dewp_051.txt.gz
Dewpoint
8 8 8 8 7 7 7 7 6 6 6 5 1 -2 -4 -7 -9 -5 -1 -4 -22 -18 3 5 3 -1 -2 -2 -2 1 2 2 2 2 1 0 1 1 1 -0 -1 -8 -17
8 8 9 8 8 8 7 7 6 6 5 4 -1 -2 -4 -7 -7 -8 -2 -0 -16 -17 1 4 3 1 1 0 1 0 1 1 0 1 1 1 1 0 -0 -1 -1 -1 -4
4 7 8 9 8 8 7 7 6 6 5 2 -1 -2 -4 -3 -3 -3 -1 1 0 -4 -8 -3 -3 -5 -4 -1 0 1 0 -1 -1 -1 -1 -0 0 1 0 -0 -1 -2 -2
8 9 9 9 8 8 7 7 6 6 4 2 -1 -2 -3 -3 -3 -4 -1 -2 -2 -0 -1 -4 -7 -7 -4 -1 -0 -1 -3 -5 -2 -2 -1 -1 -0 -1 -1 -1 -1 -1 -2
8 9 10 9 8 8 7 7 6 6 4 1 -1 -1 -1 -2 -3 -5 -2 -1 -3 -5 -4 -5 -6 -8 -10 -7 -8 -10 -11 -5 -3 -2 -1 -2 -2 -2 -2 -2 -2 -2 -2
9 8 9 9 7 8 8 7 6 5 3 1 -3 -3 1 -0 -3 -3 -3 -3 -5 -4 -4 -4 -5 -5 -6 -7 -7 -7 -10 -4 -3 -2 -2 -2 -2 -2 -2 -2 -3 -3 -3
7 7 9 9 7 8 8 7 6 5 2 1 1 1 1 1 -1 -2 -2 -3 -4 -3 -3 -4 -4 -5 -5 -5 -5 -5 -6 -8 -4 -2 -2 -2 -2 -2 -3 -3 -3 -3 -3
10 8 9 8 6 8 7 7 6 4 3 2 1 1 2 1 -0 -1 -1 -2 -3 -2 -3 -5 -4 -3 -2 -4 -5 -6 -6 -6 -8 -9 -7 -3 -3 -3 -3 -3 -3 -3 -3
10 8 8 8 7 6 7 7 6 4 3 2 1 2 2 1 1 -1 -0 -1 -2 -2 -2 -3 -3 -3 -4 -4 -4 -5 -4 -5 -6 -7 -7 -6 -4 -3 -3 -4 -3 -3 -3
7 8 7 7 7 6 7 6 6 5 3 2 2 2 2 2 -0 -1 -1 -1 -1 -1 -1 -2 -3 -4 -5 -4 -4 -4 -5 -6 -8 -8 -6 -7 -7 -5 -4 -4 -4 -4 -4
8 8 9 8 7 6 7 6 5 5 3 2 2 2 2 1 1 1 -1 -4 -3 -4 -5 -5 -4 -4 -4 -4 -3 -4 -5 -5 -9 -8 -8 -7 -8 -9 -10 -12 -7 -6 -6
9 8 9 8 7 7 7 6 5 4 2 2 1 2 2 1 -0 -2 -2 -3 -4 -5 -5 -6 -5 -4 -4 -4 -4 -5 -6 -6 -10 -15 -18 -19 -21 -24 -25 -18 -8 -7 -7
9 7 8 8 8 7 7 5 5 4 3 1 1 2 0 -0 -3 -3 -3 -4 -4 -5 -6 -6 -6 -6 -5 -6 -5 -5 -6 -8 -12 -16 -21 -24 -25 -26 -28 -29 -19 -8 -7
10 8 8 9 8 8 7 5 4 4 2 0 1 1 0 -1 -1 -1 -2 -3 -4 -5 -5 -5 -8 -8 -7 -6 -6 -7 -8 -8 -9 -10 -16 -21 -26 -29 -29 -29 -26 -16 -8
8 8 9 9 8 8 6 6 5 4 0 0 2 1 -0 0 0 -0 -2 -3 -4 -3 -4 -6 -7 -8 -8 -8 -7 -7 -7 -8 -9 -10 -13 -19 -26 -27 -27 -27 -26 -22 -9
9 10 9 9 8 8 7 6 5 2 0 1 1 1 1 0 0 -1 -2 -3 -3 -4 -5 -6 -7 -8 -8 -9 -8 -9 -8 -9 -9 -10 -12 -15 -17 -21 -24 -25 -23 -22 -15
10 10 9 8 8 7 5 5 3 0 1 1 1 1 0 -0 -0 -1 -2 -3 -3 -4 -5 -7 -7 -8 -8 -8 -8 -7 -8 -9 -9 -11 -14 -15 -15 -18 -22 -23 -22 -21 -20
9 9 9 8 7 5 4 3 2 1 1 1 1 0 -0 -1 -0 -1 -2 -3 -3 -4 -4 -5 -6 -7 -9 -9 -9 -9 -8 -10 -10 -12 -14 -14 -16 -16 -16 -16 -15 -15 -17
8 8 8 7 6 4 3 2 1 1 1 1 0 -0 -0 -1 -1 -1 -2 -2 -3 -4 -4 -4 -4 -7 -9 -9 -9 -10 -10 -10 -11 -13 -16 -16 -16 -14 -14 -13 -12 -12 -12
8 7 7 7 5 3 2 1 1 1 1 0 -0 -0 -1 -1 -2 -2 -2 -3 -4 -4 -4 -5 -5 -7 -8 -9 -10 -10 -10 -11 -11 -14 -15 -14 -14 -13 -12 -12 -12 -12 -12
7 6 6 5 4 2 1 1 1 1 0 -0 -1 -1 -1 -2 -1 -1 -3 -5 -5 -5 -5 -4 -5 -6 -8 -9 -10 -10 -9 -11 -12 -14 -14 -13 -13 -13 -13 -12 -12 -12 -9
3 2 1 0 0 -0 -0 0 0 0 -0 -1 -1 -2 -1 -3 -4 -5 -5 -6 -8 -6 -6 -5 -6 -6 -7 -8 -7 -7 -9 -11 -11 -14 -13 -13 -12 -12 -12 -12 -13 -13 -12
0 -0 -1 -0 0 0 0 0 -0 -1 -2 -2 -3 -3 -4 -5 -6 -7 -7 -6 -5 -6 -6 -5 -5 -6 -6 -6 -6 -6 -9 -10 -11 -13 -12 -12 -12 -12 -12 -12 -12 -12 -12
-0 0 1 1 0 -1 -2 -5 -7 -8 -8 -5 -5 -5 -5 -5 -6 -6 -6 -6 -5 -5 -5 -7 -7 -7 -7 -7 -6 -8 -8 -10 -11 -12 -12 -12 -12 -12 -12 -12 -12 -11 -10
1 -0 -1 -1 -1 -2 -3 -6 -8 -8 -8 -6 -5 -5 -5 -6 -6 -6 -6 -6 -6 -6 -6 -7 -7 -6 -7 -7 -8 -8 -9 -9 -11 -12 -12 -12 -12 -12 -12 -13 -12 -12 -10
-1 -2 -4 -4 -4 -7 -4 -5 -10 -11 -11 -7 -5 -5 -6 -6 -6 -6 -6 -6 -6 -7 -7 -7 -6 -6 -7 -6 -7 -7 -10 -9 -10 -11 -12 -11 -11 -12 -12 -13 -11 -12 -11

GFSMA_850_dewp_057.txt.gz
Dewpoint
3 2 3 4 5 5 5 6 6 6 6 5 -2 -1 -4 -5 -4 -4 -3 -2 -7 -13 -8 -3 -4 -9 -12 -12 -10 -7 -4 -2 -2 -1 1 -0 1 1 0 1 1 0 -0
5 3 4 5 5 6 7 7 7 6 5 5 3 -2 -3 -4 -2 -3 -3 -3 -3 -5 -12 -0 2 -1 -6 -9 -10 -6 -4 -4 -4 -4 -4 -3 0 1 0 0 0 0 -0
6 7 8 8 7 7 8 7 7 6 5 5 4 2 -2 -2 -2 -0 -1 -2 -2 -3 -3 -7 -1 -1 -2 -3 -4 -5 -3 -4 -4 -6 -4 0 0 1 -0 -2 -3 -2 -0
7 8 8 8 8 8 8 8 7 7 6 6 3 1 -1 -2 -1 -1 -0 -1 -3 -3 -2 -1 -2 -3 -5 -6 -8 -9 -6 -5 -10 -8 -2 -1 -0 -1 -1 -1 -1 -1 -1
4 8 7 7 8 8 8 8 7 7 6 5 3 1 1 -2 -1 -0 -1 -2 -2 -3 -3 -2 -1 -4 -6 -6 -7 -8 -8 -7 -7 -7 -4 -1 -1 -1 -1 -1 -2 -2 -2
4 5 6 7 9 8 8 8 7 7 6 5 4 2 0 -2 -3 -0 0 -1 -2 -3 -3 -4 -4 -6 -5 -6 -6 -6 -5 -5 -6 -9 -11 -9 -1 -1 -1 -2 -2 -2 -2
1 2 4 7 9 8 7 7 6 7 7 6 4 2 -1 -2 0 1 1 1 -1 -1 -2 -4 -4 -3 -4 -5 -5 -5 -4 -5 -5 -5 -7 -8 -12 -4 -2 -2 -2 -3 -3
7 6 4 7 7 7 8 7 6 7 6 6 4 2 0 1 1 1 1 1 -1 -2 -2 -3 -3 -3 -4 -4 -4 -3 -3 -4 -4 -5 -5 -7 -8 -12 -3 -4 -3 -3 -3
7 7 6 7 7 7 8 7 7 6 6 6 6 5 2 2 2 2 2 1 -1 -1 -2 -2 -3 -3 -4 -3 -3 -3 -4 -4 -4 -3 -4 -6 -10 -15 -6 -4 -4 -4 -4
7 6 7 7 7 7 8 8 7 7 7 7 6 4 3 2 2 1 1 1 -0 -1 -2 -2 -3 -3 -2 -2 -3 -3 -5 -4 -3 -4 -5 -8 -9 -14 -16 -9 -5 -5 -5
8 7 8 8 7 8 8 8 7 7 7 7 5 4 3 3 2 2 2 1 0 -0 -1 -1 -3 -3 -3 -4 -4 -5 -5 -4 -4 -4 -7 -8 -10 -13 -15 -18 -16 -10 -6
8 8 8 8 7 8 9 8 8 8 7 7 6 5 4 4 3 3 2 2 1 0 -0 -1 -2 -4 -3 -4 -6 -6 -5 -4 -4 -7 -6 -7 -10 -11 -13 -13 -16 -13 -8
7 8 8 8 8 8 8 9 9 8 8 7 7 6 5 4 4 4 2 2 1 2 -0 -1 -2 -2 -3 -6 -6 -6 -5 -6 -6 -7 -7 -7 -9 -9 -12 -13 -15 -22 -24
7 7 8 8 7 7 7 9 9 8 8 7 6 5 5 5 5 4 2 1 2 2 2 0 0 -2 -4 -6 -7 -7 -7 -6 -7 -7 -8 -8 -9 -9 -12 -13 -13 -16 -20
9 9 9 8 7 7 8 8 8 8 8 7 6 6 5 5 4 2 1 2 2 1 1 -1 -2 -3 -4 -5 -6 -7 -8 -8 -8 -8 -8 -8 -8 -10 -12 -12 -12 -17 -18
8 9 8 7 8 9 9 9 8 8 7 6 6 6 5 4 3 2 2 2 1 1 0 -1 -2 -3 -4 -5 -7 -7 -7 -8 -8 -8 -8 -9 -9 -10 -11 -13 -16 -16 -16
10 8 8 9 9 10 9 8 8 8 7 6 5 5 4 2 2 2 1 1 0 0 -0 -1 -2 -3 -3 -4 -5 -6 -8 -7 -7 -8 -9 -9 -9 -9 -11 -14 -16 -15 -15
11 10 10 9 8 8 8 8 7 7 6 5 4 3 2 1 1 1 0 0 0 -0 -0 -0 -1 -2 -3 -3 -4 -5 -5 -7 -7 -8 -9 -9 -9 -10 -11 -14 -15 -14 -13
10 9 9 9 8 7 7 7 6 5 4 3 3 2 1 1 0 -0 -1 -1 -0 -0 -0 -1 -1 -2 -3 -3 -3 -3 -4 -5 -6 -8 -9 -9 -9 -11 -11 -13 -13 -14 -13
9 9 8 8 8 7 6 5 4 3 3 2 1 1 1 0 -1 -1 -1 -1 -1 -2 -4 -4 -3 -3 -3 -3 -3 -4 -4 -4 -6 -7 -8 -9 -9 -10 -11 -12 -13 -13 -12
9 8 8 8 7 6 5 4 3 3 1 1 1 -0 -1 -1 -3 -3 -3 -3 -3 -4 -4 -4 -4 -4 -5 -6 -6 -7 -5 -4 -5 -6 -6 -7 -8 -7 -10 -12 -13 -13 -13
7 7 7 6 5 4 2 1 1 0 -0 -1 -1 -1 -3 -3 -4 -4 -4 -4 -4 -4 -5 -5 -6 -5 -6 -6 -5 -5 -5 -5 -4 -5 -5 -6 -7 -8 -9 -12 -13 -13 -12
6 5 4 2 0 -0 -0 -0 -0 -0 -1 -1 -4 -6 -4 -4 -4 -4 -4 -4 -4 -4 -4 -5 -5 -5 -5 -5 -5 -5 -6 -6 -6 -7 -6 -7 -8 -9 -10 -11 -14 -12 -11
2 1 0 0 -0 -0 -0 -1 -3 -7 -9 -8 -7 -6 -6 -6 -6 -6 -7 -7 -7 -8 -7 -7 -6 -5 -5 -5 -5 -6 -6 -6 -5 -6 -7 -8 -8 -9 -10 -12 -12 -11 -12
1 0 0 -1 -2 -1 -2 -5 -8 -10 -11 -10 -11 -12 -13 -14 -18 -27 -32 -36 -38 -38 -38 -38 -37 -34 -18 -6 -4 -5 -5 -6 -6 -7 -6 -7 -8 -8 -9 -13 -11 -11 -11
0 -1 -2 -2 -3 -4 -5 -7 -6 -7 -8 -12 -19 -29 -35 -37 -38 -37 -37 -37 -36 -27 -19 -20 -19 -21 -24 -32 -26 -7 -5 -5 -5 -6 -7 -7 -8 -8 -12 -12 -11 -12 -12

GFSMA_850_dewp_060.txt.gz
Dewpoint
1 0 2 3 4 5 5 5 5 5 5 5 -2 -2 -3 -3 -3 -3 -2 -2 -5 -9 -4 3 -4 -8 -12 -13 -13 -10 -8 -6 -7 -8 -7 -7 -3 0 1 -0 -0 0 0
1 -0 2 3 4 4 5 6 6 6 5 5 1 -2 -2 -2 -2 -2 -2 -1 -2 -4 -5 -6 -5 -7 -9 -11 -11 -10 -10 -9 -9 -9 -9 -7 -2 -2 -4 -4 -2 -1 -1
0 2 2 3 4 5 6 7 7 7 6 5 5 -0 -2 -2 -1 -1 -1 -1 -1 -3 -3 -3 -4 -5 -5 -3 -5 -6 -8 -8 -8 -10 -9 -5 -2 -1 -3 -7 -12 -10 -6
3 3 5 6 6 7 7 7 7 7 6 6 6 4 -0 -2 -2 -1 -1 -1 -1 -1 -3 -3 -2 -3 -2 -4 -7 -8 -9 -8 -9 -7 -6 -4 -4 -1 -0 -1 -3 -4 -2
3 4 5 7 7 8 8 8 8 7 7 6 6 4 2 2 -1 -1 -1 -0 -0 -0 -2 -2 -2 -2 -3 -5 -7 -7 -7 -7 -6 -6 -6 -6 -3 -0 -0 -1 -1 -1 -1
6 7 7 7 8 8 8 8 8 8 7 7 6 5 3 1 -0 -2 -1 -0 0 -0 -1 -1 -2 -4 -4 -6 -4 -6 -6 -5 -4 -5 -6 -7 -8 -8 -7 -5 -2 -2 -2
6 6 5 5 6 7 7 8 8 8 7 7 6 4 2 1 0 -2 -0 1 0 -0 -1 -1 -1 -3 -3 -3 -4 -6 -6 -5 -4 -4 -6 -5 -6 -8 -12 -17 -9 -3 -3
1 -0 -1 1 5 7 7 8 8 8 7 7 6 5 4 2 0 -0 -0 1 1 0 -1 -1 -1 -2 -3 -3 -4 -4 -4 -4 -4 -4 -5 -5 -5 -7 -13 -18 -6 -3 -3
-2 1 5 5 3 7 6 8 8 8 7 6 7 6 3 2 3 2 2 2 1 1 -0 -1 -1 -2 -2 -2 -3 -3 -3 -3 -4 -5 -5 -5 -4 -10 -13 -15 -17 -14 -6
1 4 5 7 7 6 6 7 8 8 7 7 7 6 6 4 3 2 2 2 1 1 1 -1 -1 -2 -2 -3 -3 -3 -3 -3 -4 -5 -5 -4 -6 -9 -12 -13 -14 -16 -15
2 5 6 7 7 6 6 7 7 8 8 7 8 7 7 5 3 3 2 2 2 3 1 -1 -1 -1 -1 -3 -3 -4 -3 -3 -5 -6 -6 -7 -7 -9 -9 -11 -12 -12 -5
2 5 7 8 7 7 7 7 7 7 8 8 8 8 7 6 5 3 3 4 4 3 1 -0 1 -0 -0 -1 -2 -3 -3 -5 -6 -7 -7 -6 -7 -9 -9 -9 -11 -13 -8
4 5 6 8 8 8 8 8 7 7 9 9 8 8 7 7 6 5 4 4 4 3 2 2 1 1 -1 -3 -2 -2 -5 -6 -6 -6 -6 -6 -8 -9 -9 -9 -11 -13 -14
5 6 6 7 7 8 8 8 8 9 9 9 9 8 7 7 6 6 5 4 4 2 2 2 2 3 0 0 1 -4 -6 -6 -6 -6 -6 -7 -9 -9 -8 -9 -10 -12 -16
6 5 6 6 8 8 9 8 7 8 9 9 8 8 7 7 6 5 5 5 3 2 2 2 2 1 -0 -2 -3 -4 -5 -7 -7 -7 -8 -8 -8 -8 -8 -9 -10 -11 -14
8 7 8 9 8 8 8 7 8 9 8 8 8 7 6 6 5 5 4 2 2 2 1 1 1 -0 -1 -2 -3 -3 -5 -7 -7 -7 -7 -7 -8 -8 -8 -9 -9 -10 -12
8 8 7 7 7 8 8 8 9 9 8 8 7 7 6 5 4 3 2 2 2 2 1 0 0 -0 -1 -1 -2 -3 -3 -4 -4 -4 -5 -7 -7 -8 -9 -9 -9 -10 -11
10 9 8 8 9 9 9 9 9 8 8 7 6 6 5 4 3 2 2 1 0 0 0 0 -1 -2 -1 -1 -1 -1 -2 -2 -3 -4 -4 -5 -7 -8 -6 -9 -9 -11 -11
7 9 8 9 9 8 7 7 7 8 7 6 5 4 3 2 1 1 0 -0 -1 -1 -1 -0 -1 -1 -3 -4 -5 -5 -4 -4 -4 -4 -5 -5 -5 -5 -7 -8 -9 -10 -12
8 10 9 9 8 8 8 7 7 6 5 4 4 3 2 1 1 -0 -1 -2 -3 -3 -3 -4 -4 -4 -4 -5 -5 -5 -6 -6 -7 -7 -6 -6 -4 -5 -6 -6 -6 -11 -9
10 10 9 8 8 8 8 7 6 5 4 3 2 1 1 -0 -1 -2 -3 -3 -2 -3 -3 -3 -3 -3 -3 -4 -5 -5 -4 -5 -6 -6 -5 -7 -5 -6 -5 -7 -7 -7 -10
9 8 8 8 8 7 6 6 5 4 2 1 0 -1 -1 -1 -3 -4 -4 -4 -4 -4 -4 -4 -4 -4 -4 -5 -7 -7 -6 -5 -5 -7 -6 -6 -6 -5 -5 -7 -7 -9 -11
8 7 7 7 6 6 5 3 2 1 -0 -1 -1 -1 -2 -6 -8 -8 -7 -6 -5 -4 -4 -5 -6 -7 -10 -12 -13 -8 -5 -5 -6 -7 -5 -5 -6 -6 -9 -7 -8 -10 -10
6 6 5 5 4 2 0 -0 -1 -1 -1 -2 -3 -8 -10 -9 -8 -8 -9 -11 -15 -22 -28 -33 -36 -36 -31 -27 -22 -25 -27 -19 -8 -6 -6 -5 -6 -7 -7 -8 -8 -9 -12
5 4 2 1 0 -0 -0 -1 -2 -5 -9 -9 -10 -11 -11 -11 -14 -24 -34 -37 -38 -39 -38 -33 -27 -23 -20 -15 -12 -10 -11 -9 -9 -10 -6 -7 -6 -7 -7 -7 -8 -8 -13
2 1 0 -0 -1 -2 -2 -4 -6 -9 -10 -10 -9 -12 -21 -33 -37 -38 -39 -38 -38 -36 -35 -34 -33 -32 -28 -20 -12 -10 -8 -9 -9 -8 -10 -6 -6 -6 -7 -7 -9 -12 -12

GFSMA_850_dewp_063.txt.gz
Dewpoint
2 3 3 3 4 3 3 4 4 4 4 3 -3 -2 -4 -3 -3 -2 -1 -1 -3 -5 -4 -3 -3 -5 -8 -9 -9 -10 -10 -10 -9 -8 -8 -7 -7 -6 -8 -11 -10 -6 -3
2 3 3 4 4 4 4 5 5 5 5 5 0 -2 -3 -3 -2 -1 -1 -1 -2 -3 -3 -2 -2 -3 -5 -7 -7 -7 -8 -9 -10 -8 -9 -8 -8 -7 -9 -12 -11 -4 -2
1 3 3 3 4 4 5 5 6 6 6 5 4 -0 -2 -3 -2 -1 -1 -1 -1 -2 -3 -2 -2 -1 -3 -3 -5 -6 -8 -9 -10 -11 -8 -8 -8 -7 -7 -10 -9 -5 -2
0 1 -0 1 2 4 5 6 7 7 7 6 5 4 3 -1 -2 -2 -1 -1 -1 -1 -2 -3 -2 -1 -2 -3 -4 -7 -6 -7 -8 -7 -7 -8 -7 -5 -3 -5 -5 -3 -1
1 1 0 2 3 5 7 7 7 7 7 7 6 6 4 2 2 1 -2 -1 -1 -0 -1 -2 -1 -1 -2 -3 -5 -6 -5 -6 -7 -6 -6 -7 -8 -7 -7 -9 -11 -14 -2
2 2 1 4 7 7 7 7 8 8 7 7 7 6 5 4 3 2 -1 -2 -0 0 -0 -1 -0 -0 -2 -3 -4 -4 -4 -6 -4 -4 -4 -6 -6 -6 -8 -11 -15 -20 -20
5 5 4 6 7 6 7 7 8 8 8 7 7 6 5 5 4 4 2 -0 -1 1 1 0 -0 -0 -2 -3 -3 -4 -4 -5 -0 -1 -4 -5 -6 -6 -6 -10 -15 -20 -20
4 7 6 5 6 5 6 8 8 8 8 8 8 7 6 4 3 3 2 1 -1 0 1 1 -0 -0 -1 -2 -2 -3 -4 -4 0 -1 -4 -5 -6 -5 -5 -11 -14 -17 -18
6 6 6 6 5 2 3 4 6 8 8 8 8 7 5 5 4 4 3 1 -0 -0 1 1 0 -0 -1 -2 -2 -2 -3 -3 -3 -3 -4 -5 -6 -5 -6 -11 -12 -13 -15
3 3 2 -0 2 6 5 2 5 7 7 8 8 7 7 6 4 4 4 3 2 1 1 2 3 1 -1 -1 -2 -2 -3 -3 -3 -3 -3 -5 -6 -7 -8 -10 -12 -12 -15
3 3 -1 -1 2 2 6 8 7 7 7 7 7 8 7 7 6 6 5 4 5 3 2 3 4 2 -1 -2 -1 -1 -2 -3 -3 -3 -3 -5 -6 -7 -7 -8 -9 -11 -13
3 3 1 -1 1 4 6 7 7 7 6 7 7 8 8 8 7 7 7 5 4 3 3 4 4 1 -1 -1 -0 -0 -1 -2 -2 -2 -3 -6 -6 -7 -6 -8 -8 -9 -10
1 1 0 -2 4 6 7 8 7 8 8 8 8 8 8 8 8 8 7 6 5 5 4 4 3 1 1 1 1 0 -1 -2 -2 -1 -5 -6 -7 -7 -6 -8 -8 -9 -9
0 -1 -1 -1 0 4 7 7 8 8 6 8 9 8 9 8 8 8 6 6 6 5 5 4 4 2 1 1 2 0 -1 0 -1 -4 -6 -6 -6 -6 -6 -8 -8 -8 -8
1 4 4 5 5 6 6 7 8 7 5 8 9 9 9 8 7 7 7 6 5 4 3 3 3 2 2 1 -0 -2 -3 -2 -3 -4 -6 -5 -6 -6 -7 -8 -8 -8 -8
6 8 8 7 6 6 6 8 6 7 8 9 9 9 8 8 7 6 5 5 5 4 2 2 2 2 1 0 -0 -1 -2 -2 -2 -3 -5 -6 -6 -6 -6 -5 -7 -8 -8
7 8 8 9 8 8 7 8 8 9 10 9 8 8 8 7 6 6 5 4 3 2 2 2 1 1 -0 -1 -1 -2 -2 -2 -2 -3 -3 -3 -3 -2 -3 -4 -4 -5 -7
9 9 6 8 9 10 9 9 9 9 9 9 9 8 7 6 5 5 4 2 2 2 0 -0 -0 0 -0 -2 -2 -2 -4 -4 -4 -4 -4 -3 -3 -3 -3 -3 -3 -5 -6
8 8 6 6 10 9 9 9 8 9 9 8 8 7 6 5 4 3 2 1 1 -0 -1 -1 -1 -2 -3 -3 -4 -4 -5 -5 -6 -6 -5 -6 -7 -8 -8 -6 -6 -5 -6
8 8 6 7 8 9 9 8 7 7 8 7 6 5 4 4 3 2 1 0 -1 -1 -4 -3 -3 -3 -5 -6 -5 -5 -5 -6 -6 -6 -6 -6 -6 -7 -8 -7 -7 -5 -5
9 7 8 7 8 9 9 8 7 8 7 6 6 4 3 2 1 1 0 -1 -2 -5 -6 -6 -6 -5 -6 -7 -6 -5 -5 -6 -7 -8 -8 -10 -8 -9 -7 -8 -6 -7 -6
10 9 10 8 9 8 8 8 8 7 6 5 4 3 2 1 0 -1 -1 -3 -5 -6 -6 -6 -7 -6 -5 -5 -7 -12 -18 -25 -26 -24 -9 -10 -9 -8 -7 -6 -6 -6 -6
10 9 10 9 9 8 8 7 6 5 4 3 2 1 0 -0 -1 -2 -4 -6 -8 -7 -7 -7 -8 -13 -25 -32 -27 -26 -21 -16 -15 -16 -13 -19 -11 -13 -7 -8 -7 -6 -8
9 9 9 8 8 7 6 5 4 3 2 1 0 -1 -1 -1 -4 -8 -9 -10 -11 -14 -22 -34 -36 -34 -30 -29 -26 -19 -15 -12 -12 -12 -11 -9 -8 -9 -15 -8 -6 -6 -8
9 8 7 7 6 5 4 3 2 1 -0 -0 -1 -1 -5 -8 -10 -13 -15 -25 -35 -38 -38 -38 -35 -36 -36 -34 -31 -27 -23 -12 -11 -12 -11 -9 -11 -10 -10 -13 -8 -6 -7
8 6 5 4 3 2 0 -0 -0 -0 -2 -6 -9 -10 -10 -11 -15 -28 -36 -37 -38 -38 -36 -37 -37 -36 -34 -33 -31 -25 -19 -18 -11 -11 -10 -9 -10 -9 -8 -8 -7 -7 -8

GFSMA_850_dewp_069.txt.gz
Dewpoint
-2 2 3 2 2 1 1 0 -2 -2 -3 -3 -3 -4 -3 -2 -2 -1 -0 -3 -3 -2 -1 -0 0 -1 -3 -5 -5 -5 -7 -7 -6 -8 -9 -8 -10 -11 -12 -14 -15 -16 -18
-3 -5 -2 1 0 -0 -1 -3 -2 -2 -3 -3 -2 -3 -3 -3 -2 -1 -1 -1 -2 -2 -2 -1 1 1 -1 -2 -3 -4 -6 -6 -7 -9 -7 -7 -8 -8 -10 -11 -13 -14 -18
-2 -5 -5 -3 -2 -2 -2 0 4 5 4 0 -2 -2 -3 -3 -2 -1 -1 -1 -1 -1 -1 -1 -0 0 0 -1 -2 -3 -4 -5 -5 -7 -7 -7 -7 -7 -8 -9 -10 -12 -15
0 -0 -3 -3 -1 3 4 5 5 5 5 4 3 2 -2 -2 -3 -2 -1 -1 -1 -1 -1 -1 -1 -0 0 -0 -1 -2 -3 -4 -3 -5 -6 -6 -6 -6 -6 -8 -9 -10 -13
2 2 0 2 4 4 5 5 5 6 6 5 5 5 5 3 -1 -2 -1 -1 -1 -1 -1 -1 -1 -0 -0 0 -0 -1 -1 -2 -2 -3 -4 -5 -5 -5 -5 -6 -7 -8 -12
3 4 4 4 4 4 5 5 5 6 6 7 7 7 6 6 4 3 2 1 -1 -2 -1 -0 -0 -0 -0 -0 -1 -2 -2 0 -1 -2 -2 -3 -4 -4 -4 -5 -6 -7 -10
2 4 4 4 4 4 4 4 5 7 7 7 7 7 7 7 6 5 4 3 3 2 -0 -1 0 0 -0 -1 -1 -1 -2 -2 1 -1 -2 -2 -3 -4 -4 -4 -5 -6 -8
2 3 4 4 3 3 3 1 4 5 7 7 8 8 7 7 7 7 6 6 5 4 3 1 -0 -0 0 -0 -0 -1 -2 -2 -1 1 1 -2 -2 -3 -4 -3 -5 -6 -7
3 3 3 4 3 3 3 3 4 4 6 7 8 8 7 7 6 6 5 5 5 4 4 5 1 -0 -0 -0 2 1 -0 -2 -2 -2 1 2 0 -1 -3 -3 -4 -5 -6
4 3 4 4 4 4 3 4 5 4 4 5 7 6 7 8 7 7 6 6 5 6 6 4 4 1 2 -0 1 1 1 -2 -3 -3 -2 -1 2 2 1 -1 -2 -4 -5
5 5 4 4 6 4 5 5 5 2 5 6 6 6 7 7 8 7 7 7 7 7 6 6 6 4 4 5 0 3 5 4 -0 -3 -3 -0 -1 1 2 1 1 -0 -1
5 6 4 4 5 3 6 4 2 2 3 5 6 7 8 8 8 8 8 8 8 7 7 6 6 5 5 3 2 3 5 3 -1 -2 -3 -2 1 -2 2 2 2 1 0
5 4 4 3 3 5 5 1 1 1 1 2 5 6 7 8 8 8 8 7 8 7 7 7 4 4 5 4 4 4 3 0 1 -0 0 1 1 -0 0 1 0 1 0
4 3 3 3 3 3 3 3 3 3 2 2 1 4 6 5 6 8 8 8 7 7 7 6 5 3 4 5 4 2 2 2 2 2 1 1 -1 -1 0 -1 -1 -2 -1
3 3 3 3 3 3 3 3 3 3 2 4 6 7 7 7 5 7 7 8 8 6 6 6 5 4 4 4 3 3 2 2 0 -1 -2 -2 -2 -2 -2 -2 -3 -4 -3
5 4 3 3 3 3 4 3 3 2 2 5 7 7 5 5 5 7 8 8 7 7 6 5 4 4 3 3 2 2 2 0 -1 -1 -1 -2 -2 -2 -2 -2 -3 -3 -4
5 5 4 4 4 4 3 3 2 2 5 7 7 8 8 7 8 8 9 8 8 7 6 5 4 4 3 3 2 1 0 -1 -1 -2 -2 -4 -5 -6 -6 -5 -5 -5 -4
-1 -1 2 2 2 2 1 1 2 5 7 8 9 8 8 8 8 9 8 8 7 6 5 5 4 3 2 2 1 -1 -7 -6 -7 -10 -10 -10 -12 -11 -11 -12 -10 -9 -8
2 1 -0 -1 -1 0 1 5 6 8 8 8 8 9 9 8 8 8 8 7 6 5 4 4 3 2 1 1 -5 -11 -13 -13 -16 -21 -26 -34 -38 -38 -38 -38 -38 -38 -38
0 1 1 2 4 4 4 5 7 9 8 8 8 9 8 8 8 7 7 6 5 5 3 2 2 1 -0 -8 -13 -15 -18 -22 -35 -38 -37 -36 -35 -36 -36 -37 -38 -39 -38
1 2 5 6 5 6 6 8 8 9 8 8 9 7 7 7 7 7 6 5 5 3 2 1 0 -2 -8 -11 -12 -16 -30 -37 -38 -36 -34 -34 -34 -35 -36 -37 -39 -39 -35
4 4 5 6 5 6 8 9 9 9 7 8 8 7 8 7 6 5 5 4 2 1 1 -0 -3 -7 -11 -13 -23 -36 -37 -32 -19 -28 -35 -35 -33 -33 -35 -37 -37 -36 -29
6 6 6 7 7 7 8 9 9 8 8 8 8 8 7 5 4 4 3 2 1 0 -1 -3 -8 -11 -17 -34 -37 -38 -37 -34 -26 -33 -34 -31 -30 -32 -24 -26 -32 -31 -21
9 8 8 8 8 9 9 9 9 8 8 8 7 7 5 4 3 2 1 0 -1 -2 -6 -10 -15 -29 -36 -37 -37 -37 -37 -36 -34 -34 -34 -23 -26 -28 -22 -22 -23 -26 -15
9 9 9 9 9 9 8 8 8 8 7 6 4 3 2 2 1 0 -1 -1 -4 -8 -13 -24 -36 -37 -37 -37 -37 -37 -36 -35 -33 -33 -36 -17 -18 -17 -26 -24 -13 -11 -13
10 9 9 8 8 8 8 8 7 7 6 4 2 2 0 0 -0 -1 -3 -7 -12 -22 -35 -35 -35 -35 -35 -35 -36 -36 -37 -36 -33 -23 -19 -20 -18 -13 -13 -18 -12 -10 -8